KC8P Weather Reports


Display with metric or nautical units.
time (UTC)temp
F
wind
direction
speed
MPH
gust
MPH
rain 1hr
in
rain 24hr
in
rain mn
in
humidity
%
barometer
mb
20260902162019 91 105 1.0 13.0 0.00 0.00 0.00 62 1014.6
20260902161914 91 186 3.0 13.0 0.00 0.00 0.00 62 1014.2
20260902161809 91 247 7.0 13.0 0.00 0.00 0.00 62 1014.2
20260902161707 91 251 6.0 13.0 0.00 0.00 0.00 61 1014.2
20260902161700 91 251 6.0 13.0 0.00 0.00 0.00 61 1014.2
20260902161554 91 270 2.0 6.0 0.00 0.00 0.00 62 1014.6
20260902161449 91 193 3.0 7.0 0.00 0.00 0.00 62 1014.2
20260902161344 91 235 4.0 10.0 0.00 0.00 0.00 63 1014.2
20260902161238 91 219 4.0 10.0 0.00 0.00 0.00 63 1014.2
20260902161201 91 177 3.0 11.0 0.00 0.00 0.00 63 1014.2
20260902161132 91 233 4.0 11.0 0.00 0.00 0.00 63 1014.2
20260902161026 91 191 3.0 11.0 0.00 0.00 0.00 62 1014.6
20260902160920 90 162 2.0 11.0 0.00 0.00 0.00 63 1014.2
20260902160815 90 226 3.0 11.0 0.00 0.00 0.00 62 1014.2
20260902160709 90 187 2.0 11.0 0.00 0.00 0.00 63 1014.2
20260902160653 90 244 2.0 11.0 0.00 0.00 0.00 63 1014.2
20260902160604 90 190 3.0 11.0 0.00 0.00 0.00 62 1014.2
20260902160457 90 272 3.0 11.0 0.00 0.00 0.00 62 1014.2
20260902160353 91 183 7.0 11.0 0.00 0.00 0.00 63 1014.2
20260902160249 91 165 6.0 11.0 0.00 0.00 0.00 63 1014.6
20260902160157 90 212 2.0 8.0 0.00 0.00 0.00 65 1014.2
20260902160153 90 169 1.0 8.0 0.00 0.00 0.00 64 1014.2
20260902160035 90 203 2.0 9.0 0.00 0.00 0.00 64 1014.2
20260902155929 90 247 4.0 9.0 0.00 0.00 0.00 65 1014.2
20260902155824 90 226 3.0 9.0 0.00 0.00 0.00 65 1014.6
20260902155718 89 205 4.0 9.0 0.00 0.00 0.00 64 1014.2
20260902155640 89 240 1.0 9.0 0.00 0.00 0.00 65 1014.2
20260902155612 90 135 5.0 9.0 0.00 0.00 0.00 64 1014.2
20260902155507 90 356 2.0 9.0 0.00 0.00 0.00 64 1014.6
20260902155400 90 155 3.0 9.0 0.00 0.00 0.00 64 1014.6
20260902155255 90 211 2.0 9.0 0.00 0.00 0.00 65 1014.2
20260902155134 90 176 2.0 9.0 0.00 0.00 0.00 65 1014.2
20260902155043 90 208 4.0 9.0 0.00 0.00 0.00 64 1014.2
20260902154938 90 211 6.0 9.0 0.00 0.00 0.00 64 1014.6
20260902154831 90 146 4.0 9.0 0.00 0.00 0.00 64 1014.2
20260902154725 90 210 2.0 9.0 0.00 0.00 0.00 65 1014.2
20260902154620 90 275 1.0 9.0 0.00 0.00 0.00 64 1014.2
20260902154513 90 181 5.0 9.0 0.00 0.00 0.00 64 1014.2
20260902154408 90 196 3.0 9.0 0.00 0.00 0.00 64 1014.2
20260902154303 90 217 3.0 9.0 0.00 0.00 0.00 66 1014.2
20260902154156 90 248 2.0 9.0 0.00 0.00 0.00 65 1014.2
20260902154120 90 216 2.0 9.0 0.00 0.00 0.00 65 1014.2
20260902154051 90 225 6.0 9.0 0.00 0.00 0.00 65 1014.2
20260902153945 90 226 5.0 8.0 0.00 0.00 0.00 64 1014.2
20260902153840 91 221 4.0 8.0 0.00 0.00 0.00 65 1014.2
20260902153733 91 255 2.0 8.0 0.00 0.00 0.00 64 1014.2
20260902153628 91 237 2.0 8.0 0.00 0.00 0.00 64 1014.2
20260902153613 91 197 1.0 8.0 0.00 0.00 0.00 64 1014.2
20260902153523 91 187 2.0 8.0 0.00 0.00 0.00 64 1014.2
20260902153417 91 199 3.0 8.0 0.00 0.00 0.00 64 1014.2
20260902153338 91 182 0.0 7.0 0.00 0.00 0.00 64 1014.6
20260902153334 92 209 2.0 8.0 0.00 0.00 0.00 64 1014.2
20260902153325 92 280 2.0 6.0 0.00 0.00 0.00 63 1014.2
20260902153059 91 122 0.0 7.0 0.00 0.00 0.00 65 1014.6
20260902152954 91 249 3.0 7.0 0.00 0.00 0.00 63 1014.2
20260902152849 90 259 1.0 7.0 0.00 0.00 0.00 66 1014.2
20260902152742 90 244 2.0 7.0 0.00 0.00 0.00 67 1014.2
20260902152637 90 203 2.0 7.0 0.00 0.00 0.00 65 1014.2
20260902152600 91 249 4.0 7.0 0.00 0.00 0.00 65 1014.2
20260902152531 91 236 2.0 7.0 0.00 0.00 0.00 65 1014.6
20260902152426 90 173 1.0 7.0 0.00 0.00 0.00 66 1014.2
20260902152319 90 165 1.0 7.0 0.00 0.00 0.00 66 1014.2
20260902152214 90 325 4.0 7.0 0.00 0.00 0.00 65 1014.2
20260902152108 91 179 2.0 8.0 0.00 0.00 0.00 65 1014.2
20260902152053 91 218 2.0 8.0 0.00 0.00 0.00 64 1014.2
20260902152004 91 266 1.0 8.0 0.00 0.00 0.00 66 1014.2
20260902151857 91 198 1.0 9.0 0.00 0.00 0.00 65 1014.2
20260902151816 89 157 0.0 9.0 0.00 0.00 0.00 66 1014.2
20260902151812 90 251 0.0 9.0 0.00 0.00 0.00 66 1014.2
20260902151804 90 257 1.0 9.0 0.00 0.00 0.00 65 1014.2
20260902151539 89 157 0.0 9.0 0.00 0.00 0.00 66 1014.2
20260902151434 89 169 2.0 9.0 0.00 0.00 0.00 66 1014.2
20260902151327 89 315 1.0 9.0 0.00 0.00 0.00 68 1014.2
20260902151222 89 188 6.0 9.0 0.00 0.00 0.00 67 1014.2
20260902151116 89 228 6.0 9.0 0.00 0.00 0.00 67 1014.2
20260902151039 89 298 4.0 9.0 0.00 0.00 0.00 67 1014.2
20260902151010 89 185 4.0 9.0 0.00 0.00 0.00 67 1014.2
20260902150905 89 189 4.0 8.0 0.00 0.00 0.00 67 1014.2
20260902150800 89 197 3.0 8.0 0.00 0.00 0.00 68 1014.2
20260902150653 89 267 2.0 6.0 0.00 0.00 0.00 67 1014.2
20260902150549 89 182 2.0 7.0 0.00 0.00 0.00 67 1014.6
20260902150533 89 177 5.0 7.0 0.00 0.00 0.00 67 1014.2
20260902150442 90 165 3.0 7.0 0.00 0.00 0.00 68 1014.2
20260902150336 89 322 3.0 7.0 0.00 0.00 0.00 68 1014.6
20260902150230 89 201 3.0 7.0 0.00 0.00 0.00 67 1014.6
20260902150125 89 136 1.0 7.0 0.00 0.00 0.00 68 1014.2
20260902150025 89 140 0.0 7.0 0.00 0.00 0.00 69 1014.2
20260902150019 89 300 1.0 7.0 0.00 0.00 0.00 68 1014.2
20260902145914 89 227 3.0 7.0 0.00 0.00 0.00 67 1014.2
20260902145807 89 296 2.0 7.0 0.00 0.00 0.00 67 1014.2
20260902145702 89 339 4.0 7.0 0.00 0.00 0.00 68 1013.9
20260902145556 89 248 2.0 7.0 0.00 0.00 0.00 69 1013.9
20260902145519 89 333 2.0 7.0 0.00 0.00 0.00 69 1014.2
20260902145451 89 227 3.0 7.0 0.00 0.00 0.00 68 1014.2
20260902145345 89 206 2.0 7.0 0.00 0.00 0.00 69 1014.2
20260902145239 89 130 1.0 6.0 0.00 0.00 0.00 70 1014.2
20260902145133 89 158 1.0 6.0 0.00 0.00 0.00 70 1014.2
20260902145028 88 267 2.0 9.0 0.00 0.00 0.00 72 1014.2
20260902145013 88 240 3.0 9.0 0.00 0.00 0.00 72 1014.2
20260902144922 88 196 1.0 9.0 0.00 0.00 0.00 70 1014.2
20260902144816 88 179 1.0 9.0 0.00 0.00 0.00 71 1014.2
20260902144711 88 196 1.0 9.0 0.00 0.00 0.00 71 1014.6
20260902144605 88 264 2.0 9.0 0.00 0.00 0.00 71 1014.2
20260902144506 88 230 4.0 9.0 0.00 0.00 0.00 70 1014.2
20260902144459 88 230 4.0 9.0 0.00 0.00 0.00 70 1014.2
20260902144354 87 236 1.0 9.0 0.00 0.00 0.00 71 1014.2
20260902144247 88 342 4.0 9.0 0.00 0.00 0.00 70 1014.2
20260902144142 88 238 5.0 9.0 0.00 0.00 0.00 70 1014.2
20260902144037 88 259 5.0 9.0 0.00 0.00 0.00 69 1014.2
20260902143959 88 179 4.0 6.0 0.00 0.00 0.00 71 1014.2
20260902143931 88 245 3.0 6.0 0.00 0.00 0.00 72 1014.2
20260902143826 88 208 1.0 6.0 0.00 0.00 0.00 72 1014.2
20260902143719 88 306 3.0 6.0 0.00 0.00 0.00 71 1014.2
20260902143613 88 306 2.0 4.0 0.00 0.00 0.00 73 1014.2
20260902143508 88 285 1.0 4.0 0.00 0.00 0.00 73 1014.2
20260902143453 88 315 3.0 4.0 0.00 0.00 0.00 72 1014.2
20260902143402 88 164 2.0 4.0 0.00 0.00 0.00 73 1014.2
20260902143256 88 177 2.0 4.0 0.00 0.00 0.00 72 1014.2
20260902143149 88 340 1.0 4.0 0.00 0.00 0.00 72 1014.2
20260902143044 88 240 1.0 4.0 0.00 0.00 0.00 73 1014.2
20260902142945 88 211 2.0 4.0 0.00 0.00 0.00 73 1014.2
20260902142938 88 200 2.0 4.0 0.00 0.00 0.00 73 1014.2
20260902142832 87 192 0.0 4.0 0.00 0.00 0.00 73 1014.2
20260902142727 87 126 0.0 4.0 0.00 0.00 0.00 74 1014.2
20260902142621 87 246 1.0 4.0 0.00 0.00 0.00 75 1014.2
20260902142515 87 183 2.0 4.0 0.00 0.00 0.00 74 1014.2
20260902142438 87 168 3.0 4.0 0.00 0.00 0.00 73 1014.2
20260902142410 87 138 1.0 3.0 0.00 0.00 0.00 74 1014.2
20260902142306 86 219 1.0 8.0 0.00 0.00 0.00 73 1014.2
20260902142158 86 145 0.0 8.0 0.00 0.00 0.00 74 1014.2
20260902142052 86 198 1.0 8.0 0.00 0.00 0.00 74 1014.2
20260902141947 86 146 1.0 8.0 0.00 0.00 0.00 75 1014.2
20260902141932 86 79 2.0 8.0 0.00 0.00 0.00 75 1014.2
20260902141841 86 205 1.0 8.0 0.00 0.00 0.00 76 1014.2
20260902141737 86 162 1.0 8.0 0.00 0.00 0.00 77 1014.2
20260902141630 85 173 0.0 8.0 0.00 0.00 0.00 76 1014.2
20260902141527 85 230 0.0 8.0 0.00 0.00 0.00 76 1014.2
20260902141421 86 186 1.0 8.0 0.00 0.00 0.00 76 1014.2
20260902141315 86 169 2.0 6.0 0.00 0.00 0.00 75 1014.2
20260902141210 86 208 4.0 6.0 0.00 0.00 0.00 75 1014.2
20260902141104 85 212 1.0 4.0 0.00 0.00 0.00 77 1014.2
20260902140958 85 262 0.0 4.0 0.00 0.00 0.00 77 1014.2
20260902140920 85 112 1.0 4.0 0.00 0.00 0.00 78 1014.2
20260902140852 85 207 1.0 4.0 0.00 0.00 0.00 78 1014.2
20260902140746 86 240 3.0 4.0 0.00 0.00 0.00 77 1014.6
20260902140641 86 110 3.0 4.0 0.00 0.00 0.00 77 1014.2
20260902140535 86 215 1.0 4.0 0.00 0.00 0.00 77 1014.2
20260902140429 85 158 0.0 4.0 0.00 0.00 0.00 77 1014.2
20260902140414 85 158 0.0 4.0 0.00 0.00 0.00 78 1014.2
20260902140323 85 167 0.0 4.0 0.00 0.00 0.00 78 1014.2
20260902140218 85 203 1.0 4.0 0.00 0.00 0.00 78 1014.6
20260902140112 85 218 2.0 4.0 0.00 0.00 0.00 77 1014.2
20260902140007 85 221 1.0 4.0 0.00 0.00 0.00 78 1014.6
20260902135908 85 175 3.0 4.0 0.00 0.00 0.00 77 1014.2
20260902135900 85 162 0.0 2.0 0.00 0.00 0.00 77 1014.2
20260902135755 85 189 0.0 2.0 0.00 0.00 0.00 78 1014.2
20260902135650 84 188 0.0 2.0 0.00 0.00 0.00 79 1014.2
20260902135641 83 188 1.0 3.0 0.00 0.00 0.00 81 1014.2
20260902135637 84 188 0.0 2.0 0.00 0.00 0.00 80 1014.2
20260902135618 83 188 1.0 3.0 0.00 0.00 0.00 80 1014.2
20260902135345 83 252 0.0 3.0 0.00 0.00 0.00 81 1014.6
20260902135226 83 177 1.0 6.0 0.00 0.00 0.00 80 1014.2
20260902135121 83 177 2.0 6.0 0.00 0.00 0.00 81 1014.2
20260902135015 83 243 0.0 6.0 0.00 0.00 0.00 82 1014.2
20260902134909 82 197 0.0 6.0 0.00 0.00 0.00 82 1014.2
20260902134854 82 197 0.0 6.0 0.00 0.00 0.00 82 1014.2
20260902134803 82 196 1.0 6.0 0.00 0.00 0.00 82 1014.6
20260902134658 82 349 1.0 6.0 0.00 0.00 0.00 82 1014.2
20260902134551 82 168 0.0 6.0 0.00 0.00 0.00 82 1014.2
20260902134446 82 315 2.0 6.0 0.00 0.00 0.00 82 1014.2
20260902134341 82 181 2.0 6.0 0.00 0.00 0.00 83 1014.2
20260902134236 82 193 0.0 6.0 0.00 0.00 0.00 84 1014.6
20260902134129 82 276 1.0 6.0 0.00 0.00 0.00 83 1014.6
20260902134024 82 206 3.0 6.0 0.00 0.00 0.00 83 1014.2
20260902133918 82 273 2.0 4.0 0.00 0.00 0.00 83 1014.2
20260902133841 82 276 2.0 4.0 0.00 0.00 0.00 83 1014.2
20260902133812 82 197 1.0 4.0 0.00 0.00 0.00 83 1014.2
20260902133706 82 213 0.0 4.0 0.00 0.00 0.00 83 1014.2
20260902133601 82 209 3.0 4.0 0.00 0.00 0.00 83 1014.6
20260902133455 82 215 1.0 4.0 0.00 0.00 0.00 83 1014.6
20260902133349 82 193 1.0 4.0 0.00 0.00 0.00 83 1014.2
20260902133334 82 165 1.0 4.0 0.00 0.00 0.00 83 1014.2
20260902133242 82 91 0.0 4.0 0.00 0.00 0.00 83 1014.2
20260902133137 82 213 1.0 4.0 0.00 0.00 0.00 84 1014.6
20260902133031 82 263 2.0 6.0 0.00 0.00 0.00 83 1014.2
20260902132926 82 253 2.0 6.0 0.00 0.00 0.00 83 1014.2
20260902132827 82 290 1.0 6.0 0.00 0.00 0.00 84 1014.2
20260902132820 82 288 2.0 6.0 0.00 0.00 0.00 83 1014.2
20260902132715 82 287 0.0 6.0 0.00 0.00 0.00 83 1014.6
20260902132609 82 189 1.0 6.0 0.00 0.00 0.00 84 1014.2
20260902132503 82 216 3.0 6.0 0.00 0.00 0.00 83 1014.2
20260902132357 82 200 0.0 6.0 0.00 0.00 0.00 84 1014.2
20260902132320 82 203 0.0 6.0 0.00 0.00 0.00 84 1014.2
20260902132250 82 286 1.0 6.0 0.00 0.00 0.00 84 1014.2
20260902132137 82 242 2.0 6.0 0.00 0.00 0.00 84 1014.2
20260902132031 82 106 3.0 6.0 0.00 0.00 0.00 83 1014.6
20260902131925 82 290 3.0 6.0 0.00 0.00 0.00 84 1014.2
20260902131833 82 183 2.0 6.0 0.00 0.00 0.00 84 1014.2
20260902131715 82 84 1.0 3.0 0.00 0.00 0.00 84 1014.2
20260902131608 82 91 1.0 3.0 0.00 0.00 0.00 84 1014.2
20260902131502 82 207 2.0 3.0 0.00 0.00 0.00 84 1014.2
20260902131357 81 212 0.0 3.0 0.00 0.00 0.00 85 1014.2
20260902131309 81 217 1.0 3.0 0.00 0.00 0.00 84 1014.2
20260902131251 81 173 2.0 3.0 0.00 0.00 0.00 84 1014.2
20260902131146 82 166 3.0 3.0 0.00 0.00 0.00 84 1014.2
20260902131039 82 285 1.0 3.0 0.00 0.00 0.00 84 1014.2
20260902130934 82 298 2.0 3.0 0.00 0.00 0.00 84 1014.2
20260902130828 82 160 2.0 3.0 0.00 0.00 0.00 83 1014.6
20260902130801 82 203 1.0 3.0 0.00 0.00 0.00 84 1014.6
20260902130722 82 253 2.0 3.0 0.00 0.00 0.00 84 1014.2
20260902130617 81 257 1.0 2.0 0.00 0.00 0.00 84 1014.2
20260902130510 81 163 0.0 2.0 0.00 0.00 0.00 84 1014.2
20260902130405 81 252 1.0 2.0 0.00 0.00 0.00 85 1014.2
20260902130258 81 247 1.0 2.0 0.00 0.00 0.00 85 1014.6
20260902130152 81 146 1.0 2.0 0.00 0.00 0.00 85 1014.6
20260902130059 81 252 0.0 2.0 0.00 0.00 0.00 85 1014.2
20260902125940 81 300 1.0 6.0 0.00 0.00 0.00 85 1014.2
20260902125835 81 61 2.0 6.0 0.00 0.00 0.00 85 1014.2
20260902125747 80 164 0.0 6.0 0.00 0.00 0.00 86 1014.2
20260902125730 80 164 0.0 6.0 0.00 0.00 0.00 86 1014.2
20260902125623 80 169 0.0 6.0 0.00 0.00 0.00 86 1014.2
20260902125518 80 178 0.0 6.0 0.00 0.00 0.00 87 1014.2
20260902125412 80 125 0.0 6.0 0.00 0.00 0.00 87 1014.2
20260902125307 80 129 0.0 6.0 0.00 0.00 0.00 87 1014.2
20260902125240 80 131 0.0 6.0 0.00 0.00 0.00 87 1014.2
20260902125201 79 277 1.0 6.0 0.00 0.00 0.00 87 1014.2
20260902125056 79 267 1.0 6.0 0.00 0.00 0.00 87 1014.2
20260902124949 79 190 4.0 6.0 0.00 0.00 0.00 87 1014.2
20260902124844 79 125 0.0 3.0 0.00 0.00 0.00 88 1014.2
20260902124738 79 113 0.0 3.0 0.00 0.00 0.00 88 1014.2
20260902124633 79 271 0.0 4.0 0.00 0.00 0.00 88 1014.6
20260902124526 79 106 0.0 4.0 0.00 0.00 0.00 88 1014.2
20260902124502 78 61 0.0 4.0 0.00 0.00 0.00 89 1014.6
20260902124457 79 269 0.0 4.0 0.00 0.00 0.00 89 1014.2
20260902124448 78 167 0.0 4.0 0.00 0.00 0.00 89 1014.2
20260902124210 78 89 0.0 4.0 0.00 0.00 0.00 89 1014.6
20260902124104 78 205 0.0 4.0 0.00 0.00 0.00 89 1014.2
20260902123959 78 169 0.0 4.0 0.00 0.00 0.00 89 1014.2
20260902123852 78 188 1.0 4.0 0.00 0.00 0.00 89 1014.2
20260902123747 78 294 2.0 4.0 0.00 0.00 0.00 89 1014.2
20260902123720 78 206 0.0 2.0 0.00 0.00 0.00 89 1014.2
20260902123641 78 227 0.0 2.0 0.00 0.00 0.00 89 1014.2
20260902123536 78 201 0.0 2.0 0.00 0.00 0.00 89 1014.2
20260902123429 78 350 1.0 2.0 0.00 0.00 0.00 89 1014.2
20260902123324 78 349 0.0 2.0 0.00 0.00 0.00 90 1014.2
20260902123218 77 37 0.0 2.0 0.00 0.00 0.00 90 1014.2
20260902123112 77 288 2.0 2.0 0.00 0.00 0.00 90 1014.2
20260902123007 77 268 2.0 2.0 0.00 0.00 0.00 90 1014.2
20260902122901 77 317 0.0 3.0 0.00 0.00 0.00 90 1014.2
20260902122755 77 256 0.0 3.0 0.00 0.00 0.00 90 1014.6
20260902122708 77 219 0.0 3.0 0.00 0.00 0.00 90 1014.2
20260902122650 77 174 0.0 3.0 0.00 0.00 0.00 90 1014.2
20260902122543 77 187 0.0 3.0 0.00 0.00 0.00 90 1014.2
20260902122443 77 150 0.0 3.0 0.00 0.00 0.00 90 1014.2
20260902122439 77 189 0.0 3.0 0.00 0.00 0.00 90 1014.2
20260902122428 77 190 0.0 3.0 0.00 0.00 0.00 90 1014.2
20260902122419 77 175 0.0 3.0 0.00 0.00 0.00 90 1014.2
20260902122121 77 220 1.0 3.0 0.00 0.00 0.00 90 1014.2
20260902122017 77 195 2.0 4.0 0.00 0.00 0.00 90 1014.2
20260902121931 77 279 1.0 4.0 0.00 0.00 0.00 90 1014.2
20260902121922 77 278 1.0 4.0 0.00 0.00 0.00 90 1014.2
20260902121911 77 168 0.0 4.0 0.00 0.00 0.00 90 1014.2
20260902121552 77 191 0.0 4.0 0.00 0.00 0.00 90 1014.2
20260902121447 77 236 0.0 4.0 0.00 0.00 0.00 90 1014.2
20260902121341 77 156 0.0 4.0 0.00 0.00 0.00 90 1014.2
20260902121235 77 196 1.0 4.0 0.00 0.00 0.00 90 1014.2
20260902121147 77 201 2.0 4.0 0.00 0.00 0.00 90 1014.2
20260902121130 77 213 3.0 4.0 0.00 0.00 0.00 90 1014.2
20260902121024 77 180 1.0 4.0 0.00 0.00 0.00 90 1014.2
20260902120919 77 195 0.0 4.0 0.00 0.00 0.00 90 1014.2
20260902120813 77 191 0.0 4.0 0.00 0.00 0.00 90 1014.2
20260902120707 77 201 1.0 4.0 0.00 0.00 0.00 90 1014.2
20260902120641 77 246 0.0 4.0 0.00 0.00 0.00 90 1014.2
20260902120602 77 201 0.0 4.0 0.00 0.00 0.00 90 1014.2
20260902120455 77 255 0.0 4.0 0.00 0.00 0.00 90 1014.6
20260902120350 77 125 1.0 4.0 0.00 0.00 0.00 90 1014.2
20260902120245 77 19 1.0 4.0 0.00 0.00 0.00 90 1014.6
20260902120139 77 132 2.0 4.0 0.00 0.00 0.00 90 1014.2
20260902120033 77 235 2.0 4.0 0.00 0.00 0.00 90 1014.2
20260902115927 77 185 1.0 4.0 0.00 0.00 0.00 90 1014.2
20260902115821 77 224 1.0 6.0 0.00 0.00 0.00 90 1014.2
20260902115715 77 167 1.0 6.0 0.00 0.00 0.00 90 1014.2
20260902115628 77 152 3.0 6.0 0.00 0.00 0.00 90 1014.2
20260902115610 77 244 2.0 6.0 0.00 0.00 0.00 90 1014.2
20260902115505 77 173 0.0 6.0 0.00 0.00 0.00 90 1014.6
20260902115358 77 147 0.0 6.0 0.00 0.00 0.00 90 1014.2
20260902115253 77 234 1.0 6.0 0.00 0.00 0.00 90 1014.2
20260902115147 77 330 2.0 6.0 0.00 0.00 0.00 90 1014.2
20260902115121 77 225 2.0 6.0 0.00 0.00 0.00 90 1013.9
20260902115042 77 260 0.0 6.0 0.00 0.00 0.00 91 1013.9
20260902114935 76 186 2.0 6.0 0.00 0.00 0.00 91 1014.2
20260902114830 76 263 3.0 6.0 0.00 0.00 0.00 91 1014.2
20260902114723 76 292 1.0 3.0 0.00 0.00 0.00 91 1013.9
20260902114617 76 19 0.0 3.0 0.00 0.00 0.00 91 1014.2
20260902114512 76 138 1.0 3.0 0.00 0.00 0.00 91 1013.9
20260902114406 76 169 1.0 3.0 0.00 0.00 0.00 91 1014.2
20260902114301 76 296 2.0 3.0 0.00 0.00 0.00 91 1013.9
20260902114154 76 101 2.0 6.0 0.00 0.00 0.00 91 1014.2
20260902114106 76 257 2.0 6.0 0.00 0.00 0.00 91 1014.2
20260902114048 76 319 1.0 6.0 0.00 0.00 0.00 91 1014.2
20260902113943 76 241 0.0 6.0 0.00 0.00 0.00 91 1014.2
20260902113838 76 211 0.0 6.0 0.00 0.00 0.00 91 1014.2
20260902113732 76 153 0.0 6.0 0.00 0.00 0.00 91 1014.2
20260902113626 76 110 0.0 6.0 0.00 0.00 0.00 91 1014.2
20260902113600 76 219 2.0 6.0 0.00 0.00 0.00 91 1014.2
20260902113521 76 136 0.0 6.0 0.00 0.00 0.00 91 1013.9
20260902113415 76 213 1.0 6.0 0.00 0.00 0.00 91 1013.9
20260902113309 76 268 4.0 6.0 0.00 0.00 0.00 91 1013.9
20260902113203 76 197 0.0 3.0 0.00 0.00 0.00 91 1013.9
20260902113056 76 277 0.0 3.0 0.00 0.00 0.00 91 1013.9
20260902112951 76 278 1.0 3.0 0.00 0.00 0.00 91 1013.9
20260902112845 76 212 1.0 3.0 0.00 0.00 0.00 91 1013.9
20260902112740 76 199 1.0 3.0 0.00 0.00 0.00 91 1013.9
20260902112634 76 160 0.0 3.0 0.00 0.00 0.00 91 1014.2
20260902112546 76 246 0.0 3.0 0.00 0.00 0.00 91 1014.2
20260902112540 76 275 1.0 3.0 0.00 0.00 0.00 91 1014.2
20260902112422 76 288 1.0 6.0 0.00 0.00 0.00 91 1014.2
20260902112317 76 207 1.0 6.0 0.00 0.00 0.00 91 1013.9
20260902112213 76 253 2.0 6.0 0.00 0.00 0.00 91 1013.9
20260902112120 76 3 0.0 6.0 0.00 0.00 0.00 91 1013.9
20260902112041 76 183 0.0 6.0 0.00 0.00 0.00 91 1013.9
20260902112001 76 179 0.0 6.0 0.00 0.00 0.00 91 1013.9
20260902111856 76 126 0.0 6.0 0.00 0.00 0.00 91 1013.9
20260902111751 76 344 0.0 6.0 0.00 0.00 0.00 91 1013.9
20260902111644 76 330 0.0 6.0 0.00 0.00 0.00 91 1013.9
20260902111538 76 276 1.0 6.0 0.00 0.00 0.00 91 1014.2
20260902111432 76 212 1.0 3.0 0.00 0.00 0.00 91 1014.2
20260902111327 76 280 0.0 3.0 0.00 0.00 0.00 91 1013.9
20260902111221 76 277 1.0 3.0 0.00 0.00 0.00 91 1014.2
20260902111115 76 174 0.0 3.0 0.00 0.00 0.00 91 1014.2
20260902111026 76 183 0.0 3.0 0.00 0.00 0.00 91 1014.2
20260902111010 76 183 0.0 3.0 0.00 0.00 0.00 91 1014.2
20260902110905 76 150 0.0 3.0 0.00 0.00 0.00 91 1014.2
20260902110758 76 141 0.0 3.0 0.00 0.00 0.00 91 1014.2
20260902110653 76 208 2.0 4.0 0.00 0.00 0.00 91 1014.2
20260902110546 76 138 0.0 4.0 0.00 0.00 0.00 91 1014.2
20260902110520 76 129 2.0 4.0 0.00 0.00 0.00 91 1014.2
20260902110453 76 231 0.0 4.0 0.00 0.00 0.00 91 1014.2
20260902110335 76 8 1.0 4.0 0.00 0.00 0.00 91 1014.6
20260902110230 76 296 2.0 4.0 0.00 0.00 0.00 91 1014.2
20260902110124 76 252 0.0 4.0 0.00 0.00 0.00 91 1014.6
20260902110018 76 253 0.0 4.0 0.00 0.00 0.00 91 1014.6
20260902105912 76 198 0.0 4.0 0.00 0.00 0.00 91 1014.6
20260902105807 76 215 1.0 4.0 0.00 0.00 0.00 91 1014.6
20260902105701 76 248 0.0 3.0 0.00 0.00 0.00 91 1014.2
20260902105555 76 281 0.0 3.0 0.00 0.00 0.00 91 1014.6
20260902105507 76 322 1.0 3.0 0.00 0.00 0.00 91 1014.6
20260902105450 76 185 0.0 3.0 0.00 0.00 0.00 91 1014.6
20260902105344 76 9 0.0 3.0 0.00 0.00 0.00 91 1014.6
20260902105238 76 334 1.0 3.0 0.00 0.00 0.00 91 1014.9
20260902105132 76 342 2.0 3.0 0.00 0.00 0.00 91 1014.6
20260902105027 76 336 0.0 3.0 0.00 0.00 0.00 91 1014.6
20260902105000 76 335 1.0 3.0 0.00 0.00 0.00 91 1014.6
20260902104922 76 283 2.0 3.0 0.00 0.00 0.00 91 1014.6
20260902104815 76 302 1.0 3.0 0.00 0.00 0.00 91 1014.6
20260902104710 76 241 1.0 3.0 0.00 0.00 0.00 91 1014.6
20260902104604 76 237 0.0 3.0 0.00 0.00 0.00 92 1014.6
20260902104458 76 332 0.0 3.0 0.00 0.00 0.00 92 1014.9
20260902104353 76 329 2.0 3.0 0.00 0.00 0.00 92 1014.6
20260902104247 76 187 0.0 3.0 0.00 0.00 0.00 92 1014.6
20260902104220 76 235 0.0 3.0 0.00 0.00 0.00 92 1014.2
20260902104213 76 286 0.0 3.0 0.00 0.00 0.00 92 1014.2
20260902104205 76 259 0.0 3.0 0.00 0.00 0.00 92 1014.2
20260902103929 76 197 0.0 3.0 0.00 0.00 0.00 92 1014.2
20260902103824 76 201 0.0 3.0 0.00 0.00 0.00 92 1014.2
20260902103718 76 247 1.0 6.0 0.00 0.00 0.00 92 1014.2
20260902103613 76 185 0.0 6.0 0.00 0.00 0.00 92 1014.2
20260902103507 76 133 2.0 6.0 0.00 0.00 0.00 92 1014.2
20260902103440 76 232 1.0 6.0 0.00 0.00 0.00 92 1014.2
20260902103401 76 277 0.0 6.0 0.00 0.00 0.00 92 1014.2
20260902103251 76 196 2.0 6.0 0.00 0.00 0.00 92 1014.2
20260902103146 76 158 0.0 6.0 0.00 0.00 0.00 92 1014.2
20260902103040 76 188 0.0 6.0 0.00 0.00 0.00 92 1014.2
20260902102934 76 216 2.0 6.0 0.00 0.00 0.00 92 1014.2
20260902102842 76 183 0.0 6.0 0.00 0.00 0.00 92 1014.2
20260902102723 76 286 3.0 6.0 0.00 0.00 0.00 92 1014.2
20260902102707 76 248 1.0 2.0 0.00 0.00 0.00 92 1014.2
20260902102702 76 184 1.0 2.0 0.00 0.00 0.00 92 1014.2
20260902102654 76 280 1.0 2.0 0.00 0.00 0.00 92 1014.2
20260902102408 76 148 0.0 2.0 0.00 0.00 0.00 92 1014.2
20260902102307 76 319 0.0 2.0 0.00 0.00 0.00 92 1014.2
20260902102158 76 187 0.0 2.0 0.00 0.00 0.00 92 1014.2
20260902102051 76 337 0.0 1.0 0.00 0.00 0.00 92 1014.2
20260902101946 76 211 0.0 0.0 0.00 0.00 0.00 92 1014.2
20260902101930 76 239 0.0 0.0 0.00 0.00 0.00 92 1014.2
20260902101840 76 179 0.0 1.0 0.00 0.00 0.00 92 1014.2
20260902101735 76 171 0.0 1.0 0.00 0.00 0.00 92 1014.2
20260902101658 76 183 0.0 3.0 0.00 0.00 0.00 92 1013.9
20260902101654 76 176 0.0 3.0 0.00 0.00 0.00 92 1014.2
20260902101645 76 191 0.0 3.0 0.00 0.00 0.00 92 1014.2
20260902101417 76 192 0.0 3.0 0.00 0.00 0.00 92 1013.9
20260902101312 76 185 0.0 3.0 0.00 0.00 0.00 92 1014.2
20260902101205 76 205 0.0 3.0 0.00 0.00 0.00 92 1013.9
20260902101100 76 226 0.0 3.0 0.00 0.00 0.00 92 1013.5
20260902101005 76 198 0.0 3.0 0.00 0.00 0.00 92 1013.9
20260902100928 76 167 0.0 3.0 0.00 0.00 0.00 92 1013.9
20260902100900 76 205 0.0 3.0 0.00 0.00 0.00 92 1013.9
20260902100753 76 196 0.0 3.0 0.00 0.00 0.00 92 1013.9
20260902100649 76 188 0.0 2.0 0.00 0.00 0.00 92 1013.9
20260902100542 76 206 0.0 2.0 0.00 0.00 0.00 92 1013.9
20260902100437 76 164 2.0 2.0 0.00 0.00 0.00 92 1013.9
20260902100422 76 143 0.0 2.0 0.00 0.00 0.00 92 1013.9
20260902100331 76 202 0.0 2.0 0.00 0.00 0.00 92 1013.9
20260902100226 76 240 0.0 2.0 0.00 0.00 0.00 92 1013.9
20260902100123 76 228 0.0 2.0 0.00 0.00 0.00 92 1013.9
20260902100016 76 251 0.0 2.0 0.00 0.00 0.00 92 1013.9
20260902095915 76 163 0.0 2.0 0.00 0.00 0.00 92 1013.9
20260902095909 76 163 0.0 2.0 0.00 0.00 0.00 92 1013.9
20260902095802 76 179 0.0 2.0 0.00 0.00 0.00 92 1014.2
20260902095657 76 205 0.0 2.0 0.00 0.00 0.00 92 1013.5
20260902095639 76 193 0.0 2.0 0.00 0.00 0.00 92 1013.9
20260902095635 76 213 0.0 2.0 0.00 0.00 0.00 92 1013.9
20260902095626 76 205 1.0 2.0 0.00 0.00 0.00 92 1013.9
20260902095339 76 196 0.0 2.0 0.00 0.00 0.00 91 1013.9
20260902095234 76 210 0.0 2.0 0.00 0.00 0.00 91 1013.9
20260902095129 76 188 0.0 2.0 0.00 0.00 0.00 91 1013.9
20260902095022 76 224 0.0 2.0 0.00 0.00 0.00 91 1013.9
20260902094917 76 138 1.0 2.0 0.00 0.00 0.00 91 1013.5
20260902094901 76 182 0.0 2.0 0.00 0.00 0.00 91 1013.5
20260902094812 76 222 0.0 2.0 0.00 0.00 0.00 91 1013.9
20260902094705 76 187 0.0 2.0 0.00 0.00 0.00 91 1013.9
20260902094600 76 205 0.0 2.0 0.00 0.00 0.00 91 1013.9
20260902094454 76 220 0.0 2.0 0.00 0.00 0.00 91 1013.9
20260902094354 76 215 1.0 2.0 0.00 0.00 0.00 91 1013.9
20260902094348 76 196 1.0 2.0 0.00 0.00 0.00 91 1013.9
20260902094242 76 209 1.0 2.0 0.00 0.00 0.00 91 1013.9
20260902094137 76 204 0.0 2.0 0.00 0.00 0.00 91 1013.9
20260902094124 76 202 2.0 2.0 0.00 0.00 0.00 91 1013.9
20260902094119 76 182 1.0 2.0 0.00 0.00 0.00 91 1013.9
20260902094110 76 186 0.0 2.0 0.00 0.00 0.00 91 1013.9
20260902093819 76 225 0.0 2.0 0.00 0.00 0.00 91 1014.2
20260902093714 76 187 1.0 2.0 0.00 0.00 0.00 91 1013.9
20260902093615 76 205 1.0 2.0 0.00 0.00 0.00 91 1013.9
20260902093606 76 174 1.0 2.0 0.00 0.00 0.00 91 1013.9
20260902093558 76 250 0.0 0.0 0.00 0.00 0.00 91 1014.2
20260902093251 76 174 0.0 0.0 0.00 0.00 0.00 91 1013.9
20260902093145 76 179 0.0 0.0 0.00 0.00 0.00 91 1013.9
20260902093040 76 184 0.0 0.0 0.00 0.00 0.00 91 1013.9
20260902092936 76 205 0.0 0.0 0.00 0.00 0.00 91 1014.2
20260902092837 76 193 0.0 0.0 0.00 0.00 0.00 91 1014.2
20260902092830 76 193 0.0 0.0 0.00 0.00 0.00 91 1013.9
20260902092725 76 165 0.0 0.0 0.00 0.00 0.00 91 1014.2
20260902092620 76 205 0.0 2.0 0.00 0.00 0.00 91 1014.2
20260902092601 76 241 0.0 3.0 0.00 0.00 0.00 91 1013.9
20260902092557 76 171 0.0 3.0 0.00 0.00 0.00 91 1014.2
20260902092548 76 223 0.0 3.0 0.00 0.00 0.00 91 1014.2
20260902092305 76 183 0.0 3.0 0.00 0.00 0.00 91 1013.9
20260902092157 76 200 0.0 3.0 0.00 0.00 0.00 91 1013.9
20260902092050 76 220 0.0 3.0 0.00 0.00 0.00 91 1014.2
20260902091957 76 97 0.0 3.0 0.00 0.00 0.00 90 1014.2
20260902091839 76 206 0.0 3.0 0.00 0.00 0.00 90 1014.2
20260902091824 76 203 0.0 3.0 0.00 0.00 0.00 90 1014.2
20260902091734 76 248 0.0 3.0 0.00 0.00 0.00 90 1014.2
20260902091628 76 246 1.0 3.0 0.00 0.00 0.00 90 1014.2
20260902091521 76 184 0.0 3.0 0.00 0.00 0.00 90 1014.2
20260902091416 76 213 1.0 3.0 0.00 0.00 0.00 90 1014.2
20260902091317 76 222 1.0 6.0 0.00 0.00 0.00 90 1014.2
20260902091311 76 132 1.0 6.0 0.00 0.00 0.00 90 1014.2
20260902091217 76 183 1.0 6.0 0.00 0.00 0.00 90 1014.2
20260902091059 76 163 1.0 6.0 0.00 0.00 0.00 90 1014.2
20260902090953 76 183 0.0 6.0 0.00 0.00 0.00 90 1014.2
20260902090848 76 191 0.0 6.0 0.00 0.00 0.00 90 1014.2
20260902090810 76 188 0.0 6.0 0.00 0.00 0.00 90 1014.2
20260902090741 76 68 0.0 6.0 0.00 0.00 0.00 90 1014.2
20260902090636 76 229 2.0 6.0 0.00 0.00 0.00 90 1013.9
20260902090531 76 204 2.0 6.0 0.00 0.00 0.00 90 1013.9
20260902090425 76 272 4.0 6.0 0.00 0.00 0.00 90 1013.9
20260902090316 76 199 1.0 3.0 0.00 0.00 0.00 90 1013.9
20260902090301 76 241 0.0 3.0 0.00 0.00 0.00 90 1013.9
20260902090211 76 117 1.0 3.0 0.00 0.00 0.00 90 1013.9
20260902090110 76 234 0.0 3.0 0.00 0.00 0.00 90 1013.9
20260902090028 76 230 1.0 3.0 0.00 0.00 0.00 90 1013.9
20260902090021 76 174 1.0 3.0 0.00 0.00 0.00 90 1013.9
20260902090012 76 118 0.0 3.0 0.00 0.00 0.00 90 1013.9
20260902085748 76 230 1.0 3.0 0.00 0.00 0.00 90 1013.9
20260902085642 76 139 2.0 3.0 0.00 0.00 0.00 90 1013.5
20260902085536 76 211 0.0 3.0 0.00 0.00 0.00 91 1013.9
20260902085431 76 155 0.0 3.0 0.00 0.00 0.00 90 1013.9
20260902085324 76 220 1.0 3.0 0.00 0.00 0.00 90 1013.9
20260902085248 76 225 2.0 3.0 0.00 0.00 0.00 91 1013.9
20260902085219 76 239 1.0 2.0 0.00 0.00 0.00 91 1013.9
20260902085114 76 247 2.0 2.0 0.00 0.00 0.00 91 1013.9
20260902085008 76 232 0.0 2.0 0.00 0.00 0.00 91 1013.9
20260902084902 76 198 0.0 2.0 0.00 0.00 0.00 91 1013.9
20260902084757 76 229 0.0 2.0 0.00 0.00 0.00 91 1013.9
20260902084741 76 238 0.0 2.0 0.00 0.00 0.00 91 1013.9
20260902084651 76 199 0.0 2.0 0.00 0.00 0.00 91 1013.9
20260902084545 76 223 0.0 2.0 0.00 0.00 0.00 91 1013.9
20260902084439 76 163 0.0 3.0 0.00 0.00 0.00 91 1013.9
20260902084333 76 124 0.0 3.0 0.00 0.00 0.00 91 1013.9
20260902084234 76 205 2.0 3.0 0.00 0.00 0.00 91 1013.9
20260902084229 76 211 1.0 3.0 0.00 0.00 0.00 91 1013.9
20260902084122 76 252 0.0 3.0 0.00 0.00 0.00 91 1013.9
20260902084017 76 135 0.0 3.0 0.00 0.00 0.00 91 1013.5
20260902083910 76 205 1.0 3.0 0.00 0.00 0.00 91 1013.5
20260902083805 76 247 0.0 3.0 0.00 0.00 0.00 91 1013.5
20260902083727 76 168 1.0 3.0 0.00 0.00 0.00 91 1013.9
20260902083659 76 199 2.0 3.0 0.00 0.00 0.00 91 1013.9
20260902083608 76 180 0.0 3.0 0.00 0.00 0.00 91 1013.9
20260902083448 76 210 0.0 3.0 0.00 0.00 0.00 91 1013.9
20260902083342 76 157 2.0 3.0 0.00 0.00 0.00 91 1013.9
20260902083237 76 239 1.0 6.0 0.00 0.00 0.00 91 1013.9
20260902083221 76 228 1.0 6.0 0.00 0.00 0.00 91 1013.9
20260902083144 76 213 1.0 6.0 0.00 0.00 0.00 91 1013.9
20260902083025 76 220 0.0 6.0 0.00 0.00 0.00 91 1013.9
20260902082919 76 193 1.0 6.0 0.00 0.00 0.00 91 1013.9
20260902082814 76 137 0.0 6.0 0.00 0.00 0.00 91 1013.9
20260902082715 76 173 0.0 6.0 0.00 0.00 0.00 91 1013.9
20260902082708 76 173 0.0 6.0 0.00 0.00 0.00 91 1013.9
20260902082602 76 174 0.0 6.0 0.00 0.00 0.00 91 1013.5
20260902082457 75 176 0.0 6.0 0.00 0.00 0.00 91 1013.9
20260902082351 75 184 3.0 6.0 0.00 0.00 0.00 92 1013.9
20260902082245 75 188 0.0 4.0 0.00 0.00 0.00 92 1013.9
20260902082207 75 173 1.0 4.0 0.00 0.00 0.00 92 1014.2
20260902082139 75 166 0.0 4.0 0.00 0.00 0.00 92 1014.2
20260902082034 75 195 2.0 4.0 0.00 0.00 0.00 92 1013.9
20260902081928 75 284 1.0 4.0 0.00 0.00 0.00 92 1013.9
20260902081822 75 265 0.0 4.0 0.00 0.00 0.00 92 1013.9
20260902081716 75 152 2.0 4.0 0.00 0.00 0.00 92 1013.9
20260902081700 75 186 2.0 4.0 0.00 0.00 0.00 92 1013.9
20260902081610 75 182 2.0 4.0 0.00 0.00 0.00 92 1013.9
20260902081505 75 223 0.0 2.0 0.00 0.00 0.00 92 1013.9
20260902081359 74 223 1.0 2.0 0.00 0.00 0.00 93 1013.5
20260902081252 74 233 1.0 2.0 0.00 0.00 0.00 93 1013.9
20260902081153 74 263 0.0 1.0 0.00 0.00 0.00 93 1013.9
20260902081147 74 264 0.0 1.0 0.00 0.00 0.00 93 1013.9
20260902081041 74 179 0.0 1.0 0.00 0.00 0.00 93 1013.9
20260902080935 74 207 1.0 1.0 0.00 0.00 0.00 92 1013.9
20260902080830 74 180 0.0 0.0 0.00 0.00 0.00 93 1013.9
20260902080723 74 180 0.0 0.0 0.00 0.00 0.00 93 1013.9
20260902080608 74 180 0.0 0.0 0.00 0.00 0.00 93 1013.9
20260902080501 74 184 0.0 0.0 0.00 0.00 0.00 93 1013.9
20260902080356 74 185 0.0 0.0 0.00 0.00 0.00 93 1013.9
20260902080250 74 207 0.0 0.0 0.00 0.00 0.00 93 1013.9
20260902080129 74 217 0.0 0.0 0.00 0.00 0.00 92 1013.9
20260902080039 74 272 0.0 0.0 0.00 0.00 0.00 92 1014.2
20260902075933 74 209 0.0 0.0 0.00 0.00 0.00 93 1013.5
20260902075859 74 183 0.0 0.0 0.00 0.00 0.00 92 1014.2
20260902075849 74 198 0.0 0.0 0.00 0.00 0.00 92 1013.9
20260902075841 74 198 0.0 0.0 0.00 0.00 0.00 93 1014.2
20260902075616 74 183 0.0 0.0 0.00 0.00 0.00 92 1014.2
20260902075511 74 183 0.0 0.0 0.00 0.00 0.00 92 1013.9
20260902075404 74 193 0.0 0.0 0.00 0.00 0.00 92 1013.9
20260902075259 74 176 0.0 0.0 0.00 0.00 0.00 92 1013.9
20260902075152 74 176 0.0 0.0 0.00 0.00 0.00 92 1013.9
20260902075116 74 176 0.0 0.0 0.00 0.00 0.00 92 1014.2
20260902075048 74 190 0.0 0.0 0.00 0.00 0.00 92 1014.2
20260902074933 74 203 0.0 0.0 0.00 0.00 0.00 92 1013.9
20260902074828 74 220 0.0 0.0 0.00 0.00 0.00 92 1013.5
20260902074721 74 200 0.0 0.0 0.00 0.00 0.00 92 1013.5
20260902074615 74 203 0.0 0.0 0.00 0.00 0.00 92 1013.5
20260902074510 74 185 0.0 0.0 0.00 0.00 0.00 92 1013.9
20260902074404 74 185 0.0 0.0 0.00 0.00 0.00 92 1013.5
20260902074258 74 202 0.0 0.0 0.00 0.00 0.00 92 1013.9
20260902074153 74 205 0.0 0.0 0.00 0.00 0.00 92 1013.5
20260902074105 74 197 0.0 0.0 0.00 0.00 0.00 92 1013.5
20260902074047 74 193 0.0 0.0 0.00 0.00 0.00 92 1013.5
20260902073942 74 203 0.0 0.0 0.00 0.00 0.00 92 1013.5
20260902073838 74 205 0.0 0.0 0.00 0.00 0.00 92 1013.5
20260902073829 74 207 0.0 0.0 0.00 0.00 0.00 93 1013.5
20260902073825 74 193 0.0 0.0 0.00 0.00 0.00 92 1013.5
20260902073817 74 217 0.0 0.0 0.00 0.00 0.00 93 1013.5
20260902073519 74 193 0.0 0.0 0.00 0.00 0.00 93 1013.5
20260902073414 74 195 0.0 0.0 0.00 0.00 0.00 93 1013.5
20260902073328 74 194 0.0 0.0 0.00 0.00 0.00 93 1013.5
20260902073319 74 184 0.0 0.0 0.00 0.00 0.00 93 1013.5
20260902073309 74 194 0.0 0.0 0.00 0.00 0.00 93 1013.5
20260902072950 73 189 0.0 0.0 0.00 0.00 0.00 93 1013.5
20260902072844 73 184 0.0 0.0 0.00 0.00 0.00 94 1013.5
20260902072739 73 229 0.0 0.0 0.00 0.00 0.00 94 1013.9
20260902072634 73 182 0.0 0.0 0.00 0.00 0.00 94 1013.5
20260902072545 73 182 0.0 0.0 0.00 0.00 0.00 94 1013.5
20260902072528 73 183 0.0 0.0 0.00 0.00 0.00 94 1013.9
20260902072421 73 184 0.0 0.0 0.00 0.00 0.00 94 1013.9
20260902072317 73 184 0.0 0.0 0.00 0.00 0.00 94 1013.9
20260902072210 73 189 0.0 0.0 0.00 0.00 0.00 94 1013.9
20260902072104 73 170 0.0 0.0 0.00 0.00 0.00 94 1013.5
20260902072039 73 191 0.0 0.0 0.00 0.00 0.00 94 1013.5
20260902071958 73 194 0.0 0.0 0.00 0.00 0.00 94 1013.9
20260902071853 73 197 0.0 0.0 0.00 0.00 0.00 94 1013.9
20260902071748 73 209 0.0 0.0 0.00 0.00 0.00 94 1013.9
20260902071640 73 203 0.0 0.0 0.00 0.00 0.00 94 1013.9
20260902071534 73 188 0.0 0.0 0.00 0.00 0.00 95 1013.9
20260902071429 73 193 0.0 0.0 0.00 0.00 0.00 95 1013.9
20260902071323 73 188 0.0 0.0 0.00 0.00 0.00 95 1013.9
20260902071217 73 206 0.0 0.0 0.00 0.00 0.00 95 1013.5
20260902071112 73 186 0.0 0.0 0.00 0.00 0.00 95 1013.9
20260902071024 73 186 0.0 0.0 0.00 0.00 0.00 95 1013.9
20260902071006 73 187 0.0 0.0 0.00 0.00 0.00 95 1013.9
20260902070859 73 186 0.0 0.0 0.00 0.00 0.00 95 1013.5
20260902070754 73 186 0.0 0.0 0.00 0.00 0.00 95 1013.9
20260902070648 73 185 0.0 0.0 0.00 0.00 0.00 95 1013.9
20260902070543 73 185 0.0 0.0 0.00 0.00 0.00 94 1013.9
20260902070516 73 183 0.0 0.0 0.00 0.00 0.00 94 1013.9
20260902070437 73 181 0.0 0.0 0.00 0.00 0.00 94 1013.9
20260902070331 73 180 0.0 0.0 0.00 0.00 0.00 94 1013.9
20260902070226 73 179 0.0 0.0 0.00 0.00 0.00 94 1013.9
20260902070119 73 179 0.0 0.0 0.00 0.00 0.00 94 1013.9
20260902070014 73 179 0.0 0.0 0.00 0.00 0.00 94 1013.9
20260902065908 73 179 0.0 0.0 0.00 0.00 0.00 94 1013.5
20260902065803 73 179 0.0 0.0 0.00 0.00 0.00 94 1013.9
20260902065658 73 179 0.0 0.0 0.00 0.00 0.00 94 1013.5
20260902065551 73 179 0.0 0.0 0.00 0.00 0.00 94 1013.9
20260902065504 73 179 0.0 0.0 0.00 0.00 0.00 94 1013.9
20260902065446 73 179 0.0 0.0 0.00 0.00 0.00 94 1013.9
20260902065340 73 178 0.0 0.0 0.00 0.00 0.00 94 1013.5
20260902065235 73 178 0.0 0.0 0.00 0.00 0.00 94 1013.9
20260902065128 73 178 0.0 0.0 0.00 0.00 0.00 94 1013.9
20260902065023 73 178 0.0 0.0 0.00 0.00 0.00 94 1013.9
20260902064956 73 178 0.0 0.0 0.00 0.00 0.00 94 1013.9
20260902064918 73 178 0.0 0.0 0.00 0.00 0.00 94 1013.9
20260902064811 73 182 0.0 0.0 0.00 0.00 0.00 94 1013.5
20260902064706 73 182 0.0 0.0 0.00 0.00 0.00 94 1013.9
20260902064558 73 182 0.0 0.0 0.00 0.00 0.00 94 1013.9
20260902064452 73 182 0.0 0.0 0.00 0.00 0.00 94 1013.5
20260902064347 73 182 0.0 0.0 0.00 0.00 0.00 94 1013.9
20260902064241 73 182 0.0 0.0 0.00 0.00 0.00 94 1013.9
20260902064135 73 182 0.0 0.0 0.00 0.00 0.00 94 1013.9
20260902064030 73 183 0.0 0.0 0.00 0.00 0.00 94 1013.5
20260902063942 73 182 0.0 0.0 0.00 0.00 0.00 94 1013.5
20260902063924 73 182 0.0 0.0 0.00 0.00 0.00 94 1013.9
20260902063818 73 182 0.0 0.0 0.00 0.00 0.00 94 1013.9
20260902063712 73 182 0.0 0.0 0.00 0.00 0.00 94 1013.9
20260902063607 73 183 0.0 0.0 0.00 0.00 0.00 94 1013.9
20260902063435 73 183 0.0 0.0 0.00 0.00 0.00 94 1013.9
20260902063356 73 182 0.0 0.0 0.00 0.00 0.00 94 1013.9
20260902063248 73 183 0.0 0.0 0.00 0.00 0.00 94 1013.9
20260902063143 73 182 0.0 0.0 0.00 0.00 0.00 94 1013.9
20260902063038 73 182 0.0 0.0 0.00 0.00 0.00 94 1013.9
20260902062932 73 182 0.0 0.0 0.00 0.00 0.00 94 1014.2
20260902062826 73 182 0.0 0.0 0.00 0.00 0.00 94 1014.2
20260902062720 73 182 0.0 0.0 0.00 0.00 0.00 94 1013.9
20260902062614 73 182 0.0 0.0 0.00 0.00 0.00 93 1013.9
20260902062509 73 182 0.0 0.0 0.00 0.00 0.00 94 1014.2
20260902062421 74 182 0.0 0.0 0.00 0.00 0.00 94 1013.9
20260902062404 74 182 0.0 0.0 0.00 0.00 0.00 93 1013.9
20260902062259 74 182 0.0 0.0 0.00 0.00 0.00 94 1014.2
20260902062152 74 182 0.0 0.0 0.00 0.00 0.00 94 1013.9
20260902062047 74 182 0.0 0.0 0.00 0.00 0.00 93 1014.2
20260902061915 74 182 0.0 0.0 0.00 0.00 0.00 93 1013.9
20260902061834 74 182 0.0 0.0 0.00 0.00 0.00 93 1014.2
20260902061729 74 183 0.0 0.0 0.00 0.00 0.00 93 1014.2
20260902061624 74 182 0.0 0.0 0.00 0.00 0.00 93 1014.2
20260902061517 74 182 0.0 0.0 0.00 0.00 0.00 93 1014.2
20260902061412 74 182 0.0 0.0 0.00 0.00 0.00 93 1014.2
20260902061306 74 182 0.0 0.0 0.00 0.00 0.00 93 1014.2
20260902061200 74 182 0.0 0.0 0.00 0.00 0.00 93 1014.2
20260902061055 74 183 0.0 0.0 0.00 0.00 0.00 93 1014.2
20260902060949 74 182 0.0 0.0 0.00 0.00 0.00 93 1014.2
20260902060900 74 182 0.0 0.0 0.00 0.00 0.00 93 1014.2
20260902060844 74 182 0.0 0.0 0.00 0.00 0.00 93 1014.2
20260902060738 74 183 0.0 0.0 0.00 0.00 0.00 93 1014.2
20260902060632 74 182 0.0 0.0 0.00 0.00 0.00 93 1014.2
20260902060526 74 182 0.0 0.0 0.00 0.00 0.00 93 1014.2
20260902060421 74 182 0.0 0.0 0.00 0.00 0.00 93 1014.6
20260902060354 74 182 0.0 0.0 0.00 0.00 0.00 93 1014.6
20260902060315 74 182 0.0 0.0 0.00 0.00 0.00 93 1014.6
20260902060208 74 182 0.0 0.0 0.00 0.00 0.00 93 1014.2
20260902060107 74 182 0.0 0.0 0.00 0.00 0.00 93 1014.2
20260902055957 74 182 0.0 0.0 0.00 0.00 0.00 93 1014.2
20260902055849 74 183 0.0 0.0 0.00 0.00 0.00 93 1014.6
20260902055743 74 183 0.0 0.0 0.00 0.00 0.00 93 1014.2
20260902055638 74 180 0.0 0.0 0.00 0.00 0.00 93 1014.2
20260902055532 74 174 0.0 0.0 0.00 0.00 0.00 93 1014.2
20260902055426 74 179 0.0 0.0 0.00 0.00 0.00 93 1014.6
20260902055320 74 179 0.0 0.0 0.00 0.00 0.00 93 1014.6
20260902055215 74 164 0.0 0.0 0.00 0.00 0.00 93 1014.6
20260902055112 74 167 0.0 0.0 0.00 0.00 0.00 93 1014.2
20260902055006 74 195 0.0 0.0 0.00 0.00 0.00 93 1014.2
20260902054900 74 199 0.0 0.0 0.00 0.00 0.00 93 1014.6
20260902054834 74 214 0.0 0.0 0.00 0.00 0.00 93 1014.6
20260902054755 74 213 0.0 0.0 0.00 0.00 0.00 93 1014.6
20260902054648 74 174 0.0 0.0 0.00 0.00 0.00 93 1014.6
20260902054543 74 173 0.0 0.0 0.00 0.00 0.00 93 1014.6
20260902054438 74 201 0.0 0.0 0.00 0.00 0.00 93 1014.6
20260902054331 74 201 0.0 0.0 0.00 0.00 0.00 93 1014.9
20260902054226 74 164 0.0 0.0 0.00 0.00 0.00 93 1014.6
20260902054120 74 181 0.0 0.0 0.00 0.00 0.00 93 1014.6
20260902054014 74 168 0.0 0.0 0.00 0.00 0.00 93 1014.6
20260902053908 74 168 0.0 0.0 0.00 0.00 0.00 93 1014.6
20260902053820 74 187 0.0 0.0 0.00 0.00 0.00 93 1014.6
20260902053803 74 187 0.0 0.0 0.00 0.00 0.00 93 1014.6
20260902053657 74 187 0.0 0.0 0.00 0.00 0.00 93 1014.6
20260902053552 74 187 0.0 0.0 0.00 0.00 0.00 93 1014.6
20260902053446 74 187 0.0 0.0 0.00 0.00 0.00 93 1014.6
20260902053340 74 187 0.0 0.0 0.00 0.00 0.00 93 1014.9
20260902053313 74 187 0.0 0.0 0.00 0.00 0.00 93 1014.6
20260902053234 74 191 0.0 0.0 0.00 0.00 0.00 93 1014.2
20260902053127 74 196 0.0 0.0 0.00 0.00 0.00 93 1014.6
20260902053022 74 192 0.0 0.0 0.00 0.00 0.00 93 1014.6
20260902052917 74 180 0.0 0.0 0.00 0.00 0.00 93 1014.6
20260902052811 74 180 0.0 0.0 0.00 0.00 0.00 93 1014.2
20260902052705 74 180 0.0 0.0 0.00 0.00 0.00 93 1014.6
20260902052600 74 180 0.0 0.0 0.00 0.00 0.00 93 1014.6
20260902052454 74 185 0.0 0.0 0.00 0.00 0.00 93 1014.6
20260902052348 74 189 0.0 0.0 0.00 0.00 0.00 93 1014.2
20260902052242 74 185 0.0 0.0 0.00 0.00 0.00 93 1014.6
20260902052137 74 171 0.0 0.0 0.00 0.00 0.00 93 1014.6
20260902052030 74 172 0.0 0.0 0.00 0.00 0.00 93 1014.6
20260902051925 74 172 0.0 0.0 0.00 0.00 0.00 93 1014.6
20260902051820 74 172 0.0 0.0 0.00 0.00 0.00 93 1014.9
20260902051753 74 172 0.0 0.0 0.00 0.00 0.00 93 1014.9
20260902051714 74 172 0.0 0.0 0.00 0.00 0.00 93 1014.6
20260902051608 74 172 0.0 0.0 0.00 0.00 0.00 92 1014.6
20260902051502 74 171 0.0 0.0 0.00 0.00 0.00 92 1014.6
20260902051357 74 166 0.0 0.0 0.00 0.00 0.00 92 1014.6
20260902051251 74 180 0.0 0.0 0.00 0.00 0.00 92 1014.6
20260902051145 74 178 0.0 0.0 0.00 0.00 0.00 93 1014.6
20260902051039 74 163 0.0 0.0 0.00 0.00 0.00 93 1014.6
20260902050934 74 155 0.0 0.0 0.00 0.00 0.00 93 1014.9
20260902050841 74 193 0.0 0.0 0.00 0.00 0.00 93 1014.9
20260902050740 74 178 0.0 0.0 0.00 0.00 0.00 93 1014.9
20260902050722 74 188 0.0 0.0 0.00 0.00 0.00 93 1014.6
20260902050616 74 181 0.0 0.0 0.00 0.00 0.00 93 1014.6
20260902050511 74 197 0.0 0.0 0.00 0.00 0.00 93 1014.6
20260902050405 74 194 0.0 0.0 0.00 0.00 0.00 93 1014.6
20260902050259 74 194 0.0 0.0 0.00 0.00 0.00 93 1014.9
20260902050232 74 203 0.0 0.0 0.00 0.00 0.00 93 1014.6
20260902050205 74 201 0.0 0.0 0.00 0.00 0.00 93 1014.6
20260902050100 74 193 0.0 0.0 0.00 0.00 0.00 93 1014.6
20260902045941 74 193 0.0 0.0 0.00 0.00 0.00 93 1014.6
20260902045836 74 193 0.0 0.0 0.00 0.00 0.00 93 1014.6
20260902045730 74 193 0.0 0.0 0.00 0.00 0.00 93 1014.6
20260902045624 74 193 0.0 0.0 0.00 0.00 0.00 93 1014.6
20260902045519 74 192 0.0 0.0 0.00 0.00 0.00 93 1014.6
20260902045412 74 192 0.0 0.0 0.00 0.00 0.00 93 1014.6
20260902045307 74 188 0.0 0.0 0.00 0.00 0.00 93 1014.9
20260902045219 74 188 0.0 0.0 0.00 0.00 0.00 93 1014.6
20260902045201 74 188 0.0 0.0 0.00 0.00 0.00 93 1014.6
20260902045056 74 188 0.0 0.0 0.00 0.00 0.00 93 1014.6
20260902044950 74 191 0.0 0.0 0.00 0.00 0.00 93 1014.6
20260902044844 74 191 0.0 0.0 0.00 0.00 0.00 93 1014.6
20260902044711 74 191 0.0 0.0 0.00 0.00 0.00 93 1014.6
20260902044632 74 191 0.0 0.0 0.00 0.00 0.00 93 1014.6
20260902044527 74 191 0.0 0.0 0.00 0.00 0.00 92 1014.6
20260902044422 74 191 0.0 0.0 0.00 0.00 0.00 92 1014.9
20260902044315 74 191 0.0 0.0 0.00 0.00 0.00 92 1014.6
20260902044210 74 191 0.0 0.0 0.00 0.00 0.00 92 1014.6
20260902044103 74 191 0.0 0.0 0.00 0.00 0.00 92 1014.6
20260902043958 74 191 0.0 0.0 0.00 0.00 0.00 92 1014.6
20260902043853 74 191 0.0 0.0 0.00 0.00 0.00 92 1014.6
20260902043746 75 191 0.0 0.0 0.00 0.00 0.00 92 1014.9
20260902043640 75 191 0.0 0.0 0.00 0.00 0.00 92 1014.6
20260902043535 74 189 0.0 0.0 0.00 0.00 0.00 92 1014.6
20260902043429 75 189 0.0 0.0 0.00 0.00 0.00 92 1014.6
20260902043324 75 189 0.0 0.0 0.00 0.00 0.00 92 1014.6
20260902043218 75 189 0.0 0.0 0.00 0.00 0.00 92 1014.6
20260902043151 75 191 0.0 0.0 0.00 0.00 0.00 92 1014.6
20260902043112 75 189 0.0 0.0 0.00 0.00 0.00 92 1014.6
20260902043007 75 191 0.0 0.0 0.00 0.00 0.00 92 1014.6
20260902042901 75 189 0.0 0.0 0.00 0.00 0.00 92 1014.6
20260902042755 75 191 0.0 0.0 0.00 0.00 0.00 92 1014.6
20260902042649 75 189 0.0 0.0 0.00 0.00 0.00 92 1014.6
20260902042544 75 192 0.0 0.0 0.00 0.00 0.00 92 1014.6
20260902042438 75 191 0.0 0.0 0.00 0.00 0.00 91 1014.6
20260902042332 75 191 0.0 0.0 0.00 0.00 0.00 91 1014.6
20260902042227 75 191 0.0 0.0 0.00 0.00 0.00 91 1014.6
20260902042121 75 191 0.0 0.0 0.00 0.00 0.00 91 1014.6
20260902042015 75 191 0.0 0.0 0.00 0.00 0.00 91 1014.6
20260902041913 75 191 0.0 0.0 0.00 0.00 0.00 91 1014.6
20260902041900 75 191 0.0 0.0 0.00 0.00 0.00 91 1014.2
20260902041852 76 191 0.0 0.0 0.00 0.00 0.00 91 1014.2
20260902041552 76 191 0.0 0.0 0.00 0.00 0.00 91 1014.2
20260902041446 76 191 0.0 0.0 0.00 0.00 0.00 91 1014.6
20260902041340 76 191 0.0 0.0 0.00 0.00 0.00 91 1014.6
20260902041235 76 191 0.0 0.0 0.00 0.00 0.00 91 1014.6
20260902041129 76 191 0.0 0.0 0.00 0.00 0.00 91 1014.6
20260902041024 76 188 0.0 0.0 0.00 0.00 0.00 90 1014.6
20260902040918 76 188 0.0 0.0 0.00 0.00 0.00 90 1014.6
20260902040813 76 192 0.0 0.0 0.00 0.00 0.00 90 1014.6
20260902040706 76 192 0.0 0.0 0.00 0.00 0.00 90 1014.6
20260902040618 76 190 0.0 0.0 0.00 0.00 0.00 90 1014.6
20260902040600 76 190 0.0 0.0 0.00 0.00 0.00 90 1014.6
20260902040455 76 190 0.0 0.0 0.00 0.00 0.00 90 1014.6
20260902040350 76 192 0.0 0.0 0.00 0.00 0.00 90 1014.6
20260902040244 76 190 0.0 0.0 0.00 0.00 0.00 90 1014.6
20260902040112 76 191 0.0 0.0 0.00 0.00 0.00 90 1014.6
20260902040032 76 191 0.0 0.0 0.00 0.00 0.00 90 1014.6
20260902035926 76 191 0.0 0.0 0.00 0.00 0.00 90 1014.6
20260902035821 76 188 0.0 0.0 0.00 0.00 0.00 90 1014.6
20260902035715 76 188 0.0 0.0 0.00 0.00 0.00 90 1014.6
20260902035610 76 201 0.0 0.0 0.00 0.00 0.00 89 1014.6
20260902035504 77 193 0.0 0.0 0.00 0.00 0.00 89 1014.6
20260902035358 77 192 0.0 0.0 0.00 0.00 0.00 89 1014.6
20260902035253 77 194 0.0 0.0 0.00 0.00 0.00 89 1014.6
20260902035146 77 192 0.0 0.0 0.00 0.00 0.00 89 1014.6
20260902035058 77 193 0.0 0.0 0.00 0.00 0.00 89 1014.6
20260902035041 77 217 0.0 0.0 0.00 0.00 0.00 89 1014.6
20260902034935 77 193 0.0 0.0 0.00 0.00 0.00 89 1014.6
20260902034830 77 180 0.0 0.0 0.00 0.00 0.00 89 1014.6
20260902034723 77 191 0.0 0.0 0.00 0.00 0.00 89 1014.2
20260902034618 77 196 0.0 0.0 0.00 0.00 0.00 89 1014.2
20260902034552 77 208 0.0 0.0 0.00 0.00 0.00 89 1014.2
20260902034513 77 182 0.0 0.0 0.00 0.00 0.00 88 1014.6
20260902034407 77 180 0.0 0.0 0.00 0.00 0.00 88 1014.6
20260902034319 77 178 0.0 0.0 0.00 0.00 0.00 88 1014.2
20260902034310 77 183 0.0 0.0 0.00 0.00 0.00 88 1014.2
20260902034300 77 177 0.0 0.0 0.00 0.00 0.00 88 1014.6
20260902033944 77 197 0.0 0.0 0.00 0.00 0.00 88 1014.2
20260902033838 77 193 0.0 0.0 0.00 0.00 0.00 88 1014.2
20260902033732 77 193 0.0 0.0 0.00 0.00 0.00 88 1014.6
20260902033639 77 185 0.0 0.0 0.00 0.00 0.00 88 1014.2
20260902033538 77 183 0.0 0.0 0.00 0.00 0.00 88 1014.2
20260902033521 77 187 0.0 0.0 0.00 0.00 0.00 88 1014.2
20260902033415 77 197 0.0 0.0 0.00 0.00 0.00 88 1014.2
20260902033311 77 198 0.0 0.0 0.00 0.00 0.00 88 1014.2
20260902033217 77 191 0.0 0.0 0.00 0.00 0.00 88 1014.2
20260902033058 77 201 0.0 0.0 0.00 0.00 0.00 88 1014.2
20260902033032 77 193 0.0 0.0 0.00 0.00 0.00 88 1014.2
20260902032953 77 210 0.0 0.0 0.00 0.00 0.00 88 1014.2
20260902032847 77 186 0.0 0.0 0.00 0.00 0.00 88 1014.2
20260902032741 77 177 0.0 0.0 0.00 0.00 0.00 88 1014.2
20260902032635 77 190 0.0 0.0 0.00 0.00 0.00 88 1014.2
20260902032542 77 193 0.0 0.0 0.00 0.00 0.00 88 1014.2
20260902032405 77 192 0.0 0.0 0.00 0.00 0.00 88 1014.2
20260902032306 77 191 0.0 0.0 0.00 0.00 0.00 88 1014.6
20260902032153 77 191 0.0 0.0 0.00 0.00 0.00 88 1014.2
20260902032047 77 195 0.0 0.0 0.00 0.00 0.00 88 1014.2
20260902031958 77 205 0.0 0.0 0.00 0.00 0.00 88 1014.2
20260902031954 77 190 0.0 0.0 0.00 0.00 0.00 88 1014.2
20260902031836 77 201 0.0 0.0 0.00 0.00 0.00 88 1014.2
20260902031728 77 203 0.0 0.0 0.00 0.00 0.00 88 1014.2
20260902031622 77 189 0.0 0.0 0.00 0.00 0.00 88 1014.2
20260902031517 77 175 0.0 0.0 0.00 0.00 0.00 88 1014.2
20260902031451 77 181 0.0 0.0 0.00 0.00 0.00 88 1014.2
20260902031411 77 188 0.0 0.0 0.00 0.00 0.00 88 1014.2
20260902031305 78 198 0.0 0.0 0.00 0.00 0.00 88 1014.2
20260902031221 78 196 0.0 0.0 0.00 0.00 0.00 88 1014.2
20260902031212 78 199 0.0 0.0 0.00 0.00 0.00 88 1014.2
20260902031202 78 192 0.0 0.0 0.00 0.00 0.00 88 1014.2
20260902030855 78 192 0.0 0.0 0.00 0.00 0.00 88 1014.2
20260902030737 78 187 0.0 0.0 0.00 0.00 0.00 88 1014.2
20260902030631 77 191 0.0 0.0 0.00 0.00 0.00 88 1014.2
20260902030526 77 198 0.0 0.0 0.00 0.00 0.00 88 1014.2
20260902030437 77 185 0.0 0.0 0.00 0.00 0.00 88 1014.2
20260902030421 77 195 0.0 0.0 0.00 0.00 0.00 89 1014.2
20260902030314 77 186 0.0 0.0 0.00 0.00 0.00 89 1014.2
20260902030209 78 184 0.0 0.0 0.00 0.00 0.00 89 1014.2
20260902030112 78 184 0.0 0.0 0.00 0.00 0.00 89 1014.2
20260902025931 78 184 0.0 0.0 0.00 0.00 0.00 88 1014.2
20260902025851 78 184 0.0 0.0 0.00 0.00 0.00 88 1014.2
20260902025745 78 184 0.0 0.0 0.00 0.00 0.00 88 1014.2
20260902025639 78 184 0.0 0.0 0.00 0.00 0.00 88 1013.9
20260902025534 78 184 0.0 0.0 0.00 0.00 0.00 88 1013.9
20260902025428 78 184 0.0 0.0 0.00 0.00 0.00 88 1013.9
20260902025323 78 184 0.0 0.0 0.00 0.00 0.00 87 1013.9
20260902025217 78 184 0.0 0.0 0.00 0.00 0.00 87 1014.2
20260902025111 78 184 0.0 0.0 0.00 0.00 0.00 87 1013.9
20260902025005 78 184 0.0 0.0 0.00 0.00 0.00 87 1014.2
20260902024917 78 184 0.0 2.0 0.00 0.00 0.00 87 1013.9
20260902024900 78 184 0.0 2.0 0.00 0.00 0.00 87 1013.9
20260902024753 78 184 0.0 2.0 0.00 0.00 0.00 87 1014.2
20260902024649 78 184 0.0 2.0 0.00 0.00 0.00 87 1014.2
20260902024640 78 184 0.0 2.0 0.00 0.00 0.00 87 1014.2
20260902024631 78 187 0.0 3.0 0.00 0.00 0.00 87 1014.2
20260902024331 78 213 0.0 3.0 0.00 0.00 0.00 87 1014.2
20260902024225 78 198 0.0 3.0 0.00 0.00 0.00 87 1014.2
20260902024119 78 199 0.0 3.0 0.00 0.00 0.00 87 1014.2
20260902024014 78 195 0.0 3.0 0.00 0.00 0.00 87 1014.2
20260902023908 78 185 2.0 3.0 0.00 0.00 0.00 87 1014.2
20260902023802 78 198 1.0 3.0 0.00 0.00 0.00 87 1014.2
20260902023657 78 192 1.0 3.0 0.00 0.00 0.00 87 1014.2
20260902023551 78 193 2.0 3.0 0.00 0.00 0.00 87 1014.2
20260902023445 78 184 1.0 2.0 0.00 0.00 0.00 87 1014.2
20260902023357 78 184 1.0 2.0 0.00 0.00 0.00 87 1014.2
20260902023339 78 184 2.0 2.0 0.00 0.00 0.00 87 1014.2
20260902023234 79 188 1.0 2.0 0.00 0.00 0.00 87 1013.9
20260902023129 79 227 1.0 2.0 0.00 0.00 0.00 87 1013.9
20260902023022 79 182 0.0 2.0 0.00 0.00 0.00 87 1014.2
20260902022917 79 181 1.0 2.0 0.00 0.00 0.00 87 1014.2
20260902022851 79 172 2.0 2.0 0.00 0.00 0.00 87 1014.2
20260902022811 79 199 1.0 2.0 0.00 0.00 0.00 87 1014.2
20260902022705 79 200 0.0 1.0 0.00 0.00 0.00 87 1013.9
20260902022621 79 189 0.0 0.0 0.00 0.00 0.00 86 1013.9
20260902022612 79 207 0.0 0.0 0.00 0.00 0.00 86 1014.2
20260902022602 79 208 0.0 0.0 0.00 0.00 0.00 87 1014.2
20260902022243 79 189 0.0 0.0 0.00 0.00 0.00 87 1013.9
20260902022137 79 195 0.0 0.0 0.00 0.00 0.00 86 1014.2
20260902022031 79 212 0.0 0.0 0.00 0.00 0.00 86 1013.9
20260902021925 79 179 0.0 0.0 0.00 0.00 0.00 86 1013.9
20260902021837 79 202 0.0 0.0 0.00 0.00 0.00 86 1013.9
20260902021820 79 180 0.0 0.0 0.00 0.00 0.00 86 1013.9
20260902021714 79 192 0.0 1.0 0.00 0.00 0.00 86 1014.2
20260902021608 79 182 0.0 2.0 0.00 0.00 0.00 86 1013.9
20260902021503 79 182 0.0 2.0 0.00 0.00 0.00 86 1014.2
20260902021356 79 195 0.0 2.0 0.00 0.00 0.00 85 1013.9
20260902021331 79 195 0.0 2.0 0.00 0.00 0.00 85 1014.2
20260902021252 79 206 0.0 2.0 0.00 0.00 0.00 85 1014.2
20260902021145 79 203 0.0 2.0 0.00 0.00 0.00 85 1014.2
20260902021039 79 181 0.0 2.0 0.00 0.00 0.00 85 1013.9
20260902020934 79 181 0.0 2.0 0.00 0.00 0.00 85 1014.2
20260902020828 79 193 0.0 2.0 0.00 0.00 0.00 85 1014.2
20260902020722 80 183 2.0 2.0 0.00 0.00 0.00 85 1014.2
20260902020629 80 197 0.0 2.0 0.00 0.00 0.00 85 1014.2
20260902020511 80 189 0.0 2.0 0.00 0.00 0.00 85 1014.2
20260902020405 80 170 0.0 2.0 0.00 0.00 0.00 85 1013.9
20260902020317 80 170 0.0 2.0 0.00 0.00 0.00 85 1013.9
20260902020300 80 170 0.0 2.0 0.00 0.00 0.00 85 1013.9
20260902020153 80 170 0.0 2.0 0.00 0.00 0.00 84 1013.9
20260902015942 80 179 1.0 2.0 0.00 0.00 0.00 84 1013.9
20260902015837 80 224 1.0 2.0 0.00 0.00 0.00 84 1013.9
20260902015810 80 185 0.0 2.0 0.00 0.00 0.00 84 1013.9
20260902015731 80 189 1.0 2.0 0.00 0.00 0.00 84 1013.9
20260902015626 80 196 0.0 2.0 0.00 0.00 0.00 84 1013.9
20260902015520 80 178 0.0 6.0 0.00 0.00 0.00 84 1014.2
20260902015414 80 193 0.0 6.0 0.00 0.00 0.00 84 1014.2
20260902015308 80 188 2.0 6.0 0.00 0.00 0.00 84 1014.2
20260902015202 80 197 1.0 6.0 0.00 0.00 0.00 84 1014.2
20260902015057 80 193 0.0 6.0 0.00 0.00 0.00 84 1014.2
20260902015031 80 191 1.0 6.0 0.00 0.00 0.00 84 1014.2
20260902015026 80 193 1.0 6.0 0.00 0.00 0.00 84 1013.9
20260902015018 80 260 0.0 6.0 0.00 0.00 0.00 84 1014.2
20260902014740 80 235 0.0 6.0 0.00 0.00 0.00 84 1014.2
20260902014634 80 251 0.0 6.0 0.00 0.00 0.00 84 1014.2
20260902014528 80 239 4.0 6.0 0.00 0.00 0.00 84 1014.2
20260902014423 80 134 0.0 3.0 0.00 0.00 0.00 84 1013.9
20260902014316 80 210 0.0 3.0 0.00 0.00 0.00 84 1013.9
20260902014251 80 229 0.0 3.0 0.00 0.00 0.00 84 1013.9
20260902014210 80 141 0.0 3.0 0.00 0.00 0.00 84 1014.2
20260902014105 80 338 0.0 3.0 0.00 0.00 0.00 84 1014.2
20260902013959 80 222 2.0 3.0 0.00 0.00 0.00 84 1014.2
20260902013854 80 141 1.0 3.0 0.00 0.00 0.00 84 1014.2
20260902013748 80 197 0.0 3.0 0.00 0.00 0.00 84 1014.2
20260902013642 80 303 1.0 3.0 0.00 0.00 0.00 84 1014.2
20260902013537 80 200 0.0 3.0 0.00 0.00 0.00 84 1014.2
20260902013430 81 204 0.0 3.0 0.00 0.00 0.00 84 1014.2
20260902013325 81 154 0.0 3.0 0.00 0.00 0.00 84 1014.2
20260902013237 81 155 0.0 3.0 0.00 0.00 0.00 84 1014.2
20260902013220 81 188 0.0 3.0 0.00 0.00 0.00 84 1014.2
20260902013114 81 220 0.0 3.0 0.00 0.00 0.00 83 1013.9
20260902013009 81 273 1.0 3.0 0.00 0.00 0.00 83 1014.2
20260902012902 81 248 0.0 3.0 0.00 0.00 0.00 83 1014.2
20260902012757 81 205 0.0 3.0 0.00 0.00 0.00 83 1014.2
20260902012730 81 200 0.0 3.0 0.00 0.00 0.00 83 1014.2
20260902012651 81 198 0.0 3.0 0.00 0.00 0.00 83 1014.2
20260902012545 81 182 2.0 4.0 0.00 0.00 0.00 83 1014.2
20260902012440 81 210 0.0 4.0 0.00 0.00 0.00 83 1014.2
20260902012335 81 228 0.0 4.0 0.00 0.00 0.00 83 1014.2
20260902012227 82 256 0.0 4.0 0.00 0.00 0.00 82 1014.2
20260902012123 82 261 1.0 4.0 0.00 0.00 0.00 82 1014.2
20260902012017 82 182 0.0 4.0 0.00 0.00 0.00 82 1014.2
20260902011911 82 192 1.0 4.0 0.00 0.00 0.00 82 1014.2
20260902011818 82 179 0.0 6.0 0.00 0.00 0.00 82 1014.2
20260902011717 82 260 1.0 6.0 0.00 0.00 0.00 82 1014.2
20260902011659 82 153 1.0 6.0 0.00 0.00 0.00 82 1014.2
20260902011553 82 269 2.0 6.0 0.00 0.00 0.00 82 1014.2
20260902011447 82 275 0.0 6.0 0.00 0.00 0.00 82 1014.2
20260902011342 82 168 0.0 6.0 0.00 0.00 0.00 81 1014.2
20260902011236 82 271 1.0 6.0 0.00 0.00 0.00 81 1014.2
20260902011210 82 186 1.0 6.0 0.00 0.00 0.00 82 1014.2
20260902011143 82 248 0.0 6.0 0.00 0.00 0.00 81 1014.2
20260902011025 82 178 1.0 6.0 0.00 0.00 0.00 81 1014.2
20260902010919 82 311 3.0 6.0 0.00 0.00 0.00 82 1013.9
20260902010813 82 210 2.0 3.0 0.00 0.00 0.00 82 1014.2
20260902010708 82 249 0.0 3.0 0.00 0.00 0.00 82 1014.2
20260902010601 82 302 0.0 3.0 0.00 0.00 0.00 82 1014.2
20260902010456 82 302 0.0 3.0 0.00 0.00 0.00 81 1014.2
20260902010351 82 227 0.0 3.0 0.00 0.00 0.00 82 1013.9
20260902010243 82 233 1.0 4.0 0.00 0.00 0.00 81 1013.9
20260902010155 82 253 2.0 4.0 0.00 0.00 0.00 82 1013.9
20260902010137 82 227 1.0 4.0 0.00 0.00 0.00 82 1013.9
20260902010033 82 234 1.0 4.0 0.00 0.00 0.00 82 1014.2
20260902005927 82 257 0.0 6.0 0.00 0.00 0.00 81 1013.9
20260902005819 82 304 2.0 6.0 0.00 0.00 0.00 81 1013.9
20260902005714 82 228 0.0 6.0 0.00 0.00 0.00 81 1013.9
20260902005648 82 295 0.0 6.0 0.00 0.00 0.00 81 1013.9
20260902005609 82 217 0.0 6.0 0.00 0.00 0.00 81 1013.9
20260902005502 82 243 0.0 6.0 0.00 0.00 0.00 81 1013.9
20260902005357 82 326 2.0 6.0 0.00 0.00 0.00 81 1013.9
20260902005252 82 286 1.0 6.0 0.00 0.00 0.00 81 1013.9
20260902005146 82 292 2.0 6.0 0.00 0.00 0.00 81 1013.9
20260902005039 82 171 1.0 6.0 0.00 0.00 0.00 81 1013.9
20260902004934 82 267 2.0 6.0 0.00 0.00 0.00 82 1013.9
20260902004828 82 281 1.0 6.0 0.00 0.00 0.00 82 1013.9
20260902004723 82 175 0.0 7.0 0.00 0.00 0.00 81 1014.2
20260902004634 82 179 2.0 7.0 0.00 0.00 0.00 81 1014.2
20260902004617 82 185 2.0 7.0 0.00 0.00 0.00 81 1014.2
20260902004511 82 256 2.0 7.0 0.00 0.00 0.00 81 1013.9
20260902004406 82 269 0.0 7.0 0.00 0.00 0.00 81 1013.9
20260902004259 82 235 2.0 7.0 0.00 0.00 0.00 81 1013.5
20260902004154 82 210 1.0 7.0 0.00 0.00 0.00 81 1013.5
20260902004128 82 215 3.0 7.0 0.00 0.00 0.00 81 1013.5
20260902004049 82 269 1.0 7.0 0.00 0.00 0.00 81 1013.5
20260902003943 82 205 2.0 7.0 0.00 0.00 0.00 82 1013.5
20260902003837 82 269 2.0 7.0 0.00 0.00 0.00 82 1013.5
20260902003732 82 196 0.0 7.0 0.00 0.00 0.00 82 1013.5
20260902003626 82 185 0.0 7.0 0.00 0.00 0.00 82 1013.5
20260902003519 81 252 1.0 7.0 0.00 0.00 0.00 82 1013.9
20260902003414 81 214 0.0 0.0 0.00 0.00 0.00 82 1013.5
20260902003309 82 214 0.0 0.0 0.00 0.00 0.00 82 1013.5
20260902003203 82 219 0.0 0.0 0.00 0.00 0.00 82 1013.5
20260902003115 82 220 0.0 0.0 0.00 0.00 0.00 82 1013.5
20260902003058 82 220 0.0 0.0 0.00 0.00 0.00 81 1013.5
20260902002951 82 220 0.0 0.0 0.00 0.00 0.00 80 1013.9
20260902002846 82 221 0.0 0.0 0.00 0.00 0.00 80 1013.5
20260902002741 83 221 0.0 0.0 0.00 0.00 0.00 80 1013.5
20260902002607 83 221 0.0 0.0 0.00 0.00 0.00 79 1013.5
20260902002528 83 221 0.0 0.0 0.00 0.00 0.00 79 1013.5
20260902002423 83 232 0.0 0.0 0.00 0.00 0.00 79 1013.5
20260902002318 83 232 0.0 0.0 0.00 0.00 0.00 79 1013.5
20260902002211 83 232 0.0 0.0 0.00 0.00 0.00 79 1013.5
20260902002105 83 233 0.0 0.0 0.00 0.00 0.00 79 1013.5
20260902001959 83 233 0.0 0.0 0.00 0.00 0.00 79 1013.5
20260902001853 83 233 0.0 0.0 0.00 0.00 0.00 78 1013.5
20260902001748 83 233 0.0 0.0 0.00 0.00 0.00 78 1013.5
20260902001643 83 233 0.0 0.0 0.00 0.00 0.00 78 1013.5
20260902001553 83 239 0.0 0.0 0.00 0.00 0.00 78 1013.5
20260902001536 83 250 0.0 0.0 0.00 0.00 0.00 78 1013.5
20260902001430 83 321 0.0 0.0 0.00 0.00 0.00 77 1013.5
20260902001325 83 321 0.0 0.0 0.00 0.00 0.00 77 1013.5
20260902001219 83 321 0.0 0.0 0.00 0.00 0.00 77 1013.5
20260902001114 83 321 0.0 0.0 0.00 0.00 0.00 77 1013.1
20260902001047 83 321 0.0 0.0 0.00 0.00 0.00 77 1013.1
20260902001020 83 321 0.0 0.0 0.00 0.00 0.00 77 1013.5
20260902000902 83 321 0.0 0.0 0.00 0.00 0.00 77 1013.5
20260902000756 83 305 0.0 0.0 0.00 0.00 0.00 77 1013.5
20260902000651 84 265 0.0 0.0 0.00 0.00 0.00 77 1013.5
20260902000545 84 266 0.0 0.0 0.00 0.00 0.00 77 1013.5
20260902000439 84 266 0.0 0.0 0.00 0.00 0.00 77 1013.5
20260902000334 84 248 0.0 0.0 0.00 0.00 0.00 76 1013.5
20260902000228 84 321 0.0 0.0 0.00 0.00 0.00 76 1013.5
20260902000115 84 321 0.0 0.0 0.00 0.00 0.00 76 1013.5
20260902000036 84 319 0.0 0.0 0.00 0.00 0.00 76 1013.5
20260902000009 84 271 0.0 0.0 0.00 0.00 0.00 76 1013.5
20260901235851 84 294 0.0 0.0 0.00 0.00 0.00 76 1013.5
20260901235758 84 198 0.0 0.0 0.00 0.00 0.00 76 1013.5
20260901235640 84 198 0.0 0.0 0.00 0.00 0.00 76 1013.5
20260901235534 84 198 0.0 0.0 0.00 0.00 0.00 76 1013.5
20260901235427 84 198 0.0 0.0 0.00 0.00 0.00 76 1013.5
20260901235322 84 198 0.0 0.0 0.00 0.00 0.00 75 1013.5
20260901235216 85 198 0.0 0.0 0.00 0.00 0.00 75 1013.5
20260901235110 85 198 0.0 0.0 0.00 0.00 0.00 75 1013.5
20260901235022 85 198 0.0 0.0 0.00 0.00 0.00 75 1013.9
20260901235005 85 198 0.0 0.0 0.00 0.00 0.00 75 1013.9
20260901234900 85 198 0.0 0.0 0.00 0.00 0.00 75 1013.5
20260901234806 85 198 0.0 0.0 0.00 0.00 0.00 75 1013.5
20260901234649 85 198 0.0 0.0 0.00 0.00 0.00 75 1013.5
20260901234543 85 198 0.0 0.0 0.00 0.00 0.00 74 1013.5
20260901234516 85 198 0.0 1.0 0.00 0.00 0.00 74 1013.5
20260901234437 85 198 0.0 2.0 0.00 0.00 0.00 74 1013.5
20260901234330 85 198 0.0 2.0 0.00 0.00 0.00 74 1013.5
20260901234246 85 198 0.0 2.0 0.00 0.00 0.00 74 1013.5
20260901234237 85 198 0.0 2.0 0.00 0.00 0.00 74 1013.5
20260901234227 85 304 0.0 3.0 0.00 0.00 0.00 74 1013.5
20260901233908 85 216 0.0 3.0 0.00 0.00 0.00 74 1013.5
20260901233802 85 216 0.0 3.0 0.00 0.00 0.00 74 1013.5
20260901233656 85 215 0.0 3.0 0.00 0.00 0.00 74 1013.5
20260901233550 85 238 0.0 3.0 0.00 0.00 0.00 74 1013.5
20260901233502 85 271 1.0 3.0 0.00 0.00 0.00 74 1013.5
20260901233445 85 292 1.0 3.0 0.00 0.00 0.00 74 1013.5
20260901233339 85 279 1.0 3.0 0.00 0.00 0.00 74 1013.5
20260901233233 85 229 0.0 3.0 0.00 0.00 0.00 74 1013.5
20260901233128 85 214 1.0 3.0 0.00 0.00 0.00 74 1013.5
20260901233022 85 217 1.0 3.0 0.00 0.00 0.00 74 1013.5
20260901232956 85 221 1.0 3.0 0.00 0.00 0.00 73 1013.5
20260901232929 85 327 2.0 2.0 0.00 0.00 0.00 73 1013.5
20260901232811 85 243 0.0 2.0 0.00 0.00 0.00 74 1013.5
20260901232724 85 243 0.0 3.0 0.00 0.00 0.00 74 1013.5
20260901232716 86 248 0.0 3.0 0.00 0.00 0.00 74 1013.5
20260901232705 86 279 0.0 3.0 0.00 0.00 0.00 74 1013.5
20260901232348 86 268 0.0 3.0 0.00 0.00 0.00 73 1013.9
20260901232242 86 280 0.0 3.0 0.00 0.00 0.00 73 1013.5
20260901232137 86 280 0.0 3.0 0.00 0.00 0.00 73 1013.5
20260901232030 86 280 0.0 3.0 0.00 0.00 0.00 73 1013.9
20260901231942 86 278 1.0 3.0 0.00 0.00 0.00 73 1013.9
20260901231925 86 257 1.0 3.0 0.00 0.00 0.00 73 1013.5
20260901231819 86 279 2.0 3.0 0.00 0.00 0.00 73 1013.9
20260901231714 86 176 0.0 0.0 0.00 0.00 0.00 73 1013.9
20260901231608 86 270 0.0 2.0 0.00 0.00 0.00 73 1013.9
20260901231435 86 207 0.0 2.0 0.00 0.00 0.00 73 1013.5
20260901231410 87 195 0.0 2.0 0.00 0.00 0.00 73 1013.9
20260901231251 87 188 0.0 2.0 0.00 0.00 0.00 72 1013.9
20260901231145 87 211 0.0 2.0 0.00 0.00 0.00 72 1013.5
20260901231039 87 220 0.0 2.0 0.00 0.00 0.00 72 1013.9
20260901230933 87 220 0.0 2.0 0.00 0.00 0.00 72 1013.9
20260901230828 87 246 0.0 2.0 0.00 0.00 0.00 72 1013.9
20260901230722 87 239 0.0 2.0 0.00 0.00 0.00 72 1013.5
20260901230656 88 163 0.0 2.0 0.00 0.00 0.00 71 1013.5
20260901230651 87 331 0.0 0.0 0.00 0.00 0.00 71 1013.5
20260901230643 88 228 0.0 1.0 0.00 0.00 0.00 71 1013.9
20260901230405 88 178 0.0 2.0 0.00 0.00 0.00 71 1013.5
20260901230300 88 197 0.0 2.0 0.00 0.00 0.00 71 1013.5
20260901230154 88 276 0.0 2.0 0.00 0.00 0.00 71 1013.5
20260901225942 88 245 0.0 2.0 0.00 0.00 0.00 70 1013.9
20260901225915 88 241 0.0 2.0 0.00 0.00 0.00 70 1013.5
20260901225836 89 178 0.0 2.0 0.00 0.00 0.00 70 1013.5
20260901225731 89 196 0.0 3.0 0.00 0.00 0.00 69 1013.5
20260901225626 89 238 0.0 3.0 0.00 0.00 0.00 70 1013.5
20260901225519 89 272 1.0 3.0 0.00 0.00 0.00 69 1013.5
20260901225413 89 221 0.0 3.0 0.00 0.00 0.00 69 1013.5
20260901225307 89 237 0.0 3.0 0.00 0.00 0.00 69 1013.5
20260901225202 89 227 0.0 3.0 0.00 0.00 0.00 69 1013.5
20260901225057 88 170 0.0 3.0 0.00 0.00 0.00 70 1013.5
20260901224950 88 171 0.0 3.0 0.00 0.00 0.00 69 1013.5
20260901224903 88 290 0.0 3.0 0.00 0.00 0.00 69 1013.5
20260901224845 88 293 1.0 3.0 0.00 0.00 0.00 69 1013.5
20260901224740 88 176 0.0 3.0 0.00 0.00 0.00 69 1013.9
20260901224634 88 231 0.0 3.0 0.00 0.00 0.00 69 1013.5
20260901224528 89 220 2.0 4.0 0.00 0.00 0.00 69 1013.5
20260901224422 89 148 0.0 6.0 0.00 0.00 0.00 69 1013.5
20260901224356 89 148 0.0 6.0 0.00 0.00 0.00 69 1013.5
20260901224317 89 314 2.0 6.0 0.00 0.00 0.00 68 1013.5
20260901224210 89 128 1.0 6.0 0.00 0.00 0.00 69 1013.5
20260901224105 89 191 1.0 6.0 0.00 0.00 0.00 69 1013.5
20260901224000 89 165 0.0 6.0 0.00 0.00 0.00 69 1013.5
20260901223853 89 247 2.0 6.0 0.00 0.00 0.00 69 1013.5
20260901223748 88 213 1.0 8.0 0.00 0.00 0.00 68 1013.9
20260901223643 88 225 1.0 8.0 0.00 0.01 0.00 68 1013.9
20260901223536 88 297 3.0 8.0 0.00 0.01 0.00 69 1013.5
20260901223431 88 194 2.0 8.0 0.00 0.01 0.00 69 1013.5
20260901223342 88 237 2.0 8.0 0.00 0.01 0.00 69 1013.5
20260901223325 88 163 2.0 8.0 0.00 0.01 0.00 70 1013.5
20260901223219 87 210 1.0 8.0 0.00 0.01 0.00 69 1013.9
20260901223113 87 194 2.0 8.0 0.00 0.01 0.00 70 1013.5
20260901223008 87 180 2.0 8.0 0.00 0.01 0.00 70 1013.5
20260901222901 87 214 1.0 8.0 0.00 0.01 0.00 70 1013.5
20260901222835 88 226 3.0 8.0 0.00 0.01 0.00 70 1013.5
20260901222755 88 265 4.0 8.0 0.00 0.01 0.00 69 1013.5
20260901222650 88 287 2.0 6.0 0.00 0.01 0.00 69 1013.5
20260901222603 88 279 3.0 4.0 0.00 0.01 0.00 69 1013.5
20260901222555 88 171 0.0 4.0 0.00 0.01 0.00 69 1013.5
20260901222544 89 254 3.0 4.0 0.00 0.01 0.00 69 1013.5
20260901222227 89 222 1.0 4.0 0.00 0.01 0.00 69 1013.5
20260901222121 89 206 3.0 4.0 0.00 0.01 0.00 68 1013.5
20260901222016 90 233 0.0 4.0 0.00 0.01 0.00 68 1013.5
20260901221911 90 293 1.0 4.0 0.00 0.01 0.00 67 1013.9
20260901221822 90 290 1.0 4.0 0.00 0.01 0.00 67 1013.5
20260901221804 90 340 2.0 4.0 0.00 0.01 0.00 66 1013.5
20260901221659 91 306 1.0 4.0 0.00 0.01 0.00 66 1013.5
20260901221552 91 133 0.0 3.0 0.00 0.01 0.00 67 1013.5
20260901221447 91 324 0.0 3.0 0.00 0.01 0.00 67 1013.5
20260901221342 91 3 1.0 3.0 0.00 0.01 0.00 67 1013.5
20260901221314 91 4 2.0 3.0 0.00 0.01 0.00 67 1013.5
20260901221235 91 200 1.0 3.0 0.00 0.01 0.00 68 1013.5
20260901221132 90 215 1.0 3.0 0.00 0.01 0.00 67 1013.5
20260901221026 90 317 1.0 8.0 0.00 0.01 0.00 67 1013.5
20260901220921 90 221 2.0 8.0 0.00 0.01 0.00 67 1013.5
20260901220815 90 42 1.0 8.0 0.00 0.01 0.00 67 1013.5
20260901220710 90 23 1.0 8.0 0.00 0.01 0.00 68 1013.5
20260901220603 90 319 1.0 8.0 0.00 0.01 0.00 67 1013.5
20260901220458 90 169 2.0 8.0 0.00 0.01 0.00 66 1013.5
20260901220353 90 294 0.0 8.0 0.00 0.01 0.00 67 1013.5
20260901220304 90 218 0.0 8.0 0.00 0.01 0.00 67 1013.5
20260901220247 90 224 0.0 8.0 0.00 0.01 0.00 67 1013.5
20260901220141 89 217 1.0 8.0 0.00 0.01 0.00 67 1013.9
20260901220036 89 151 0.0 4.0 0.00 0.01 0.00 67 1013.5
20260901220027 89 246 0.0 8.0 0.00 0.01 0.00 68 1013.5
20260901220023 89 148 0.0 8.0 0.00 0.01 0.00 69 1013.5
20260901220014 89 251 3.0 8.0 0.00 0.01 0.00 68 1013.5
20260901215718 89 325 0.0 8.0 0.00 0.01 0.00 68 1013.5
20260901215613 89 207 3.0 8.0 0.00 0.01 0.00 68 1013.5
20260901215525 89 160 0.0 8.0 0.00 0.01 0.00 68 1013.5
20260901215516 89 257 1.0 8.0 0.00 0.01 0.00 68 1013.5
20260901215506 89 191 0.0 8.0 0.00 0.01 0.00 68 1013.5
20260901215150 90 82 2.0 8.0 0.00 0.01 0.00 67 1013.5
20260901215043 90 231 4.0 8.0 0.00 0.01 0.00 67 1013.5
20260901214938 90 239 2.0 4.0 0.00 0.01 0.00 67 1013.1
20260901214833 90 344 0.0 4.0 0.00 0.01 0.00 67 1013.1
20260901214744 90 184 0.0 4.0 0.00 0.01 0.00 67 1013.1
20260901214727 90 207 0.0 4.0 0.00 0.01 0.00 67 1013.1
20260901214621 90 200 0.0 4.0 0.00 0.01 0.00 68 1013.5
20260901214519 89 235 2.0 4.0 0.00 0.01 0.00 69 1013.1
20260901214515 89 199 0.0 4.0 0.00 0.01 0.00 68 1013.5
20260901214506 89 182 0.0 4.0 0.00 0.01 0.00 69 1013.1
20260901214458 89 268 1.0 4.0 0.00 0.01 0.00 69 1013.1
20260901214158 89 278 2.0 4.0 0.00 0.01 0.00 69 1013.5
20260901214053 89 258 2.0 4.0 0.00 0.01 0.00 70 1013.5
20260901213947 89 220 0.0 3.0 0.00 0.01 0.00 70 1013.1
20260901213841 89 165 0.0 3.0 0.00 0.01 0.00 70 1013.5
20260901213735 89 199 0.0 3.0 0.00 0.01 0.00 71 1013.1
20260901213630 89 208 0.0 3.0 0.00 0.01 0.00 70 1013.5
20260901213524 89 169 1.0 3.0 0.00 0.01 0.00 70 1013.1
20260901213418 89 276 1.0 2.0 0.00 0.01 0.00 69 1013.1
20260901213312 89 253 2.0 2.0 0.00 0.01 0.00 69 1013.1
20260901213223 89 216 1.0 2.0 0.00 0.01 0.00 69 1013.5
20260901213205 89 217 0.0 2.0 0.00 0.01 0.00 69 1013.5
20260901213059 89 277 1.0 2.0 0.00 0.01 0.00 69 1013.5
20260901212954 89 220 2.0 2.0 0.00 0.01 0.00 68 1013.5
20260901212848 89 168 0.0 2.0 0.00 0.01 0.00 69 1013.5
20260901212755 89 223 2.0 2.0 0.00 0.01 0.00 70 1013.5
20260901212716 89 193 0.0 2.0 0.00 0.01 0.00 70 1013.5
20260901212637 89 152 0.0 1.0 0.00 0.01 0.00 70 1013.5
20260901212531 89 252 0.0 1.0 0.00 0.01 0.00 69 1013.5
20260901212425 89 297 0.0 2.0 0.00 0.01 0.00 69 1013.5
20260901212320 90 298 0.0 2.0 0.00 0.01 0.00 70 1013.5
20260901212214 90 169 0.0 2.0 0.00 0.01 0.00 69 1013.5
20260901212108 90 175 0.0 2.0 0.00 0.01 0.00 68 1013.5
20260901212003 90 213 0.0 2.0 0.00 0.01 0.00 69 1013.5
20260901211936 89 329 0.0 2.0 0.00 0.01 0.00 69 1013.5
20260901211930 90 195 0.0 2.0 0.00 0.01 0.00 69 1013.5
20260901211922 90 152 0.0 2.0 0.00 0.01 0.00 69 1013.5
20260901211646 89 351 0.0 2.0 0.00 0.01 0.00 70 1013.5
20260901211539 89 281 0.0 2.0 0.00 0.01 0.00 69 1013.5
20260901211434 89 107 1.0 3.0 0.00 0.01 0.00 70 1013.5
20260901211329 89 206 1.0 3.0 0.00 0.01 0.00 70 1013.5
20260901211222 89 257 0.0 3.0 0.00 0.01 0.00 69 1013.5
20260901211156 89 257 0.0 4.0 0.00 0.01 0.00 69 1013.5
20260901211116 89 216 0.0 4.0 0.00 0.01 0.00 70 1013.5
20260901211011 89 271 0.0 4.0 0.00 0.01 0.00 70 1013.5
20260901210906 89 195 0.0 4.0 0.00 0.01 0.00 70 1013.5
20260901210759 89 172 2.0 4.0 0.00 0.01 0.00 69 1013.5
20260901210654 89 281 1.0 4.0 0.00 0.01 0.00 69 1013.5
20260901210547 89 228 2.0 4.0 0.00 0.01 0.00 69 1013.5
20260901210442 89 305 1.0 6.0 0.00 0.01 0.00 69 1013.5
20260901210336 89 154 0.0 6.0 0.00 0.01 0.00 68 1013.5
20260901210232 90 264 3.0 7.0 0.00 0.01 0.00 68 1013.5
20260901210143 90 175 3.0 7.0 0.00 0.01 0.00 68 1013.5
20260901210126 90 166 0.0 7.0 0.00 0.01 0.00 68 1013.5
20260901210019 90 280 2.0 7.0 0.00 0.01 0.00 67 1013.5
20260901205914 90 249 2.0 7.0 0.00 0.01 0.00 67 1013.9
20260901205809 89 203 1.0 7.0 0.00 0.01 0.00 67 1013.9
20260901205702 89 274 2.0 7.0 0.00 0.01 0.00 67 1013.5
20260901205637 89 183 2.0 7.0 0.00 0.01 0.00 67 1013.5
20260901205557 89 296 2.0 7.0 0.00 0.01 0.00 67 1013.5
20260901205451 90 193 2.0 7.0 0.00 0.01 0.00 68 1013.5
20260901205345 90 235 3.0 7.0 0.00 0.01 0.00 66 1013.5
20260901205240 90 112 2.0 7.0 0.00 0.01 0.00 65 1013.5
20260901205134 90 284 2.0 10.0 0.00 0.01 0.00 67 1013.5
20260901205029 90 156 0.0 10.0 0.00 0.01 0.00 67 1013.5
20260901204922 90 154 1.0 10.0 0.00 0.01 0.00 66 1013.5
20260901204817 90 308 2.0 10.0 0.00 0.01 0.00 66 1013.5
20260901204711 90 2 2.0 10.0 0.00 0.01 0.00 66 1013.9
20260901204622 90 270 1.0 10.0 0.00 0.01 0.00 67 1013.5
20260901204605 90 215 1.0 10.0 0.00 0.01 0.00 67 1013.5
20260901204459 90 233 3.0 10.0 0.00 0.01 0.00 66 1013.9
20260901204353 90 329 2.0 10.0 0.00 0.01 0.00 68 1013.5
20260901204247 91 225 4.0 10.0 0.00 0.01 0.00 67 1013.5
20260901204142 91 169 4.0 7.0 0.00 0.01 0.00 66 1013.5
20260901204115 91 194 1.0 7.0 0.00 0.01 0.00 66 1013.5
20260901204036 90 2 1.0 7.0 0.00 0.01 0.00 67 1013.5
20260901203930 90 186 0.0 7.0 0.00 0.01 0.00 66 1013.5
20260901203825 90 5 3.0 7.0 0.00 0.01 0.00 66 1013.5
20260901203719 90 288 5.0 7.0 0.00 0.01 0.00 66 1013.9
20260901203613 90 296 4.0 7.0 0.00 0.01 0.00 68 1013.5
20260901203508 90 244 2.0 7.0 0.00 0.01 0.00 69 1013.5
20260901203401 89 212 0.0 7.0 0.00 0.01 0.00 69 1013.5
20260901203256 89 177 1.0 7.0 0.00 0.01 0.00 68 1013.5
20260901203150 89 222 1.0 7.0 0.00 0.01 0.00 68 1013.5
20260901203102 89 11 2.0 7.0 0.00 0.01 0.00 68 1013.5
20260901203044 89 17 2.0 7.0 0.00 0.01 0.00 68 1013.5
20260901202938 90 219 4.0 7.0 0.00 0.01 0.00 67 1013.9
20260901202832 90 294 4.0 7.0 0.00 0.01 0.00 67 1013.5
20260901202726 90 257 0.0 7.0 0.00 0.01 0.00 67 1013.9
20260901202621 90 238 3.0 7.0 0.00 0.01 0.00 67 1013.5
20260901202554 90 339 4.0 7.0 0.00 0.01 0.00 66 1013.5
20260901202515 90 298 1.0 7.0 0.00 0.01 0.00 68 1013.9
20260901202422 90 226 1.0 7.0 0.00 0.01 0.00 68 1013.5
20260901202306 90 266 3.0 7.0 0.00 0.01 0.00 68 1013.5
20260901202159 90 238 2.0 7.0 0.00 0.01 0.00 67 1013.9
20260901202052 91 167 4.0 7.0 0.00 0.01 0.00 67 1013.5
20260901201946 92 129 1.0 7.0 0.00 0.01 0.00 66 1013.5
20260901201841 92 227 4.0 7.0 0.00 0.01 0.00 65 1013.5
20260901201736 92 272 2.0 7.0 0.00 0.01 0.00 65 1013.5
20260901201628 92 240 1.0 4.0 0.00 0.01 0.00 65 1013.5
20260901201540 91 136 0.0 4.0 0.00 0.01 0.00 66 1013.5
20260901201522 91 201 0.0 4.0 0.00 0.01 0.00 66 1013.5
20260901201417 91 176 2.0 4.0 0.00 0.01 0.00 66 1013.5
20260901201311 92 347 2.0 6.0 0.00 0.01 0.00 66 1013.5
20260901201206 92 277 2.0 6.0 0.00 0.01 0.00 66 1013.5
20260901201101 92 205 2.0 6.0 0.00 0.01 0.00 65 1013.5
20260901201034 92 305 1.0 6.0 0.00 0.01 0.00 65 1013.5
20260901200955 91 247 0.0 6.0 0.00 0.01 0.00 66 1013.5
20260901200848 91 197 0.0 6.0 0.00 0.01 0.00 67 1013.5
20260901200743 92 182 4.0 6.0 0.00 0.01 0.00 65 1013.5
20260901200637 92 230 2.0 6.0 0.00 0.01 0.00 64 1013.9
20260901200531 92 210 1.0 6.0 0.00 0.01 0.00 64 1013.5
20260901200426 92 168 2.0 6.0 0.00 0.01 0.00 65 1013.5
20260901200320 92 226 2.0 6.0 0.00 0.01 0.00 65 1013.5
20260901200216 92 198 1.0 7.0 0.00 0.01 0.00 64 1013.5
20260901200122 92 206 0.0 7.0 0.00 0.01 0.00 65 1013.5
20260901200020 92 126 1.0 7.0 0.00 0.01 0.00 65 1013.5
20260901200003 92 295 1.0 7.0 0.00 0.01 0.00 65 1013.5
20260901195858 92 273 4.0 7.0 0.00 0.01 0.00 65 1013.9
20260901195754 92 201 3.0 8.0 0.00 0.01 0.00 64 1013.5
20260901195646 92 158 1.0 8.0 0.00 0.01 0.00 64 1013.5
20260901195541 92 315 3.0 8.0 0.00 0.01 0.00 65 1013.9
20260901195514 92 237 4.0 8.0 0.00 0.01 0.00 64 1013.5
20260901195435 92 93 4.0 8.0 0.00 0.01 0.00 65 1013.5
20260901195342 92 215 1.0 8.0 0.00 0.01 0.00 64 1013.5
20260901195223 92 288 4.0 8.0 0.00 0.01 0.00 63 1013.5
20260901195130 92 243 4.0 8.0 0.00 0.01 0.00 63 1013.5
20260901195011 93 65 2.0 8.0 0.00 0.01 0.00 64 1013.5
20260901194906 93 167 4.0 8.0 0.00 0.01 0.00 65 1013.9
20260901194800 93 209 0.0 7.0 0.00 0.01 0.00 64 1013.5
20260901194653 93 335 3.0 7.0 0.00 0.01 0.00 63 1013.5
20260901194547 93 339 3.0 7.0 0.00 0.01 0.00 64 1013.5
20260901194459 93 239 1.0 7.0 0.00 0.01 0.00 63 1013.9
20260901194441 93 159 2.0 7.0 0.00 0.01 0.00 63 1013.9
20260901194336 93 235 0.0 7.0 0.00 0.01 0.00 64 1013.9
20260901194230 92 205 0.0 7.0 0.00 0.01 0.00 64 1013.5
20260901194125 92 238 0.0 7.0 0.00 0.01 0.00 65 1013.9
20260901194019 92 228 4.0 7.0 0.00 0.01 0.00 64 1013.9
20260901193952 92 212 4.0 7.0 0.00 0.01 0.00 65 1013.9
20260901193913 93 213 1.0 6.0 0.00 0.01 0.00 65 1013.9
20260901193808 93 213 1.0 6.0 0.00 0.01 0.00 65 1013.5
20260901193702 93 290 3.0 6.0 0.00 0.01 0.00 64 1013.9
20260901193556 93 80 2.0 6.0 0.00 0.01 0.00 64 1013.9
20260901193450 93 283 1.0 6.0 0.00 0.01 0.00 65 1013.5
20260901193344 93 183 0.0 6.0 0.00 0.01 0.00 64 1013.9
20260901193239 93 305 5.0 6.0 0.00 0.01 0.00 64 1013.9
20260901193134 93 274 0.0 6.0 0.00 0.01 0.00 65 1013.9
20260901193027 92 207 0.0 6.0 0.00 0.01 0.00 65 1013.9
20260901192939 92 153 1.0 6.0 0.00 0.01 0.00 66 1013.9
20260901192922 92 328 0.0 6.0 0.00 0.01 0.00 66 1013.9
20260901192816 92 136 1.0 6.0 0.00 0.01 0.00 66 1013.5
20260901192710 92 277 2.0 6.0 0.00 0.01 0.00 67 1013.9
20260901192605 92 294 0.0 6.0 0.00 0.01 0.00 66 1013.9
20260901192459 92 156 3.0 6.0 0.00 0.01 0.00 66 1013.9
20260901192433 92 269 3.0 6.0 0.00 0.01 0.00 67 1013.9
20260901192353 92 223 2.0 6.0 0.00 0.01 0.00 66 1013.9
20260901192248 92 312 4.0 6.0 0.00 0.01 0.00 64 1013.5
20260901192142 92 222 1.0 3.0 0.00 0.01 0.00 66 1013.9
20260901192037 92 239 1.0 3.0 0.00 0.01 0.00 66 1013.5
20260901191930 92 276 1.0 6.0 0.00 0.01 0.00 66 1013.5
20260901191824 92 195 1.0 6.0 0.00 0.01 0.00 65 1013.9
20260901191717 91 253 0.0 7.0 0.00 0.01 0.00 66 1013.5
20260901191612 91 346 1.0 7.0 0.00 0.01 0.00 66 1013.9
20260901191506 91 237 1.0 7.0 0.00 0.01 0.00 66 1013.9
20260901191418 91 138 0.0 7.0 0.00 0.01 0.00 67 1013.5
20260901191400 91 236 1.0 7.0 0.00 0.01 0.00 67 1013.5
20260901191255 91 165 1.0 7.0 0.00 0.01 0.00 66 1013.5
20260901191148 91 152 2.0 7.0 0.00 0.01 0.00 66 1013.9
20260901191043 91 195 4.0 7.0 0.00 0.01 0.00 65 1013.9
20260901190937 91 177 1.0 7.0 0.00 0.01 0.00 66 1013.9
20260901190911 91 226 2.0 7.0 0.00 0.01 0.00 65 1013.9
20260901190832 91 225 2.0 7.0 0.00 0.01 0.00 66 1013.5
20260901190725 91 192 0.0 7.0 0.00 0.01 0.00 66 1013.9
20260901190622 91 276 2.0 7.0 0.00 0.01 0.00 67 1013.9
20260901190517 91 280 2.0 7.0 0.00 0.01 0.00 67 1013.9
20260901190408 91 255 1.0 7.0 0.00 0.01 0.00 66 1013.9
20260901190315 91 268 1.0 7.0 0.00 0.01 0.00 65 1013.5
20260901190157 91 225 3.0 7.0 0.00 0.01 0.00 65 1013.9
20260901190104 91 189 2.0 7.0 0.00 0.01 0.00 65 1013.9
20260901185946 91 204 4.0 7.0 0.00 0.01 0.00 66 1013.5
20260901185856 91 213 3.0 7.0 0.00 0.01 0.00 65 1013.9
20260901185839 91 265 4.0 7.0 0.00 0.01 0.00 65 1013.9
20260901185733 92 150 2.0 7.0 0.00 0.01 0.00 65 1013.5
20260901185628 92 287 3.0 7.0 0.00 0.01 0.00 63 1013.5
20260901185521 91 344 1.0 7.0 0.00 0.01 0.00 65 1013.5
20260901185416 91 201 1.0 7.0 0.00 0.01 0.00 66 1013.9
20260901185350 91 103 0.0 7.0 0.00 0.01 0.00 66 1013.9
20260901185310 91 317 4.0 7.0 0.00 0.01 0.00 65 1013.9
20260901185205 91 215 1.0 7.0 0.00 0.01 0.00 66 1013.9
20260901185122 92 0 2.0 7.0 0.00 0.01 0.00 65 1013.5
20260901185113 92 322 2.0 6.0 0.00 0.01 0.00 64 1013.9
20260901185103 92 352 2.0 6.0 0.00 0.02 0.00 65 1013.5
20260901184742 92 207 2.0 6.0 0.00 0.02 0.00 64 1013.5
20260901184635 92 222 2.0 6.0 0.00 0.02 0.00 66 1013.5
20260901184529 91 170 1.0 6.0 0.00 0.02 0.00 65 1013.5
20260901184424 92 196 2.0 7.0 0.00 0.02 0.00 65 1013.9
20260901184335 92 270 2.0 7.0 0.00 0.02 0.00 65 1013.9
20260901184318 92 233 3.0 7.0 0.00 0.02 0.00 64 1013.5
20260901184211 92 183 2.0 7.0 0.00 0.02 0.00 64 1013.5
20260901184106 92 268 3.0 7.0 0.00 0.02 0.00 63 1013.5
20260901184000 92 188 1.0 7.0 0.00 0.02 0.00 64 1013.5
20260901183854 92 177 1.0 7.0 0.00 0.02 0.00 63 1013.5
20260901183828 92 164 1.0 7.0 0.00 0.02 0.00 64 1013.5
20260901183749 92 202 1.0 7.0 0.00 0.02 0.00 64 1013.5
20260901183643 92 206 3.0 7.0 0.00 0.02 0.00 64 1013.5
20260901183537 93 277 5.0 10.0 0.00 0.02 0.00 63 1013.5
20260901183432 93 239 2.0 10.0 0.00 0.02 0.00 63 1013.5
20260901183326 93 311 1.0 10.0 0.00 0.02 0.00 64 1013.5
20260901183220 92 0 2.0 10.0 0.00 0.02 0.00 64 1013.5
20260901183115 91 271 1.0 10.0 0.00 0.02 0.00 64 1013.5
20260901183009 91 278 2.0 10.0 0.00 0.02 0.00 67 1013.5
20260901182903 91 244 3.0 10.0 0.00 0.02 0.00 66 1013.9
20260901182815 91 272 1.0 10.0 0.00 0.02 0.00 65 1013.5
20260901182757 91 206 0.0 10.0 0.00 0.02 0.00 66 1013.5
20260901182652 92 181 2.0 10.0 0.00 0.02 0.00 65 1013.5
20260901182546 92 101 2.0 7.0 0.00 0.02 0.00 64 1013.5
20260901182440 92 37 2.0 7.0 0.00 0.02 0.00 65 1013.5
20260901182308 91 216 0.0 8.0 0.00 0.02 0.00 67 1013.9
20260901182229 92 318 3.0 8.0 0.00 0.02 0.00 67 1013.5
20260901182123 92 354 3.0 8.0 0.00 0.02 0.00 66 1013.5
20260901182018 93 239 2.0 8.0 0.00 0.02 0.00 65 1013.5
20260901181912 93 261 5.0 8.0 0.00 0.02 0.00 65 1013.5
20260901181806 92 83 1.0 8.0 0.00 0.02 0.00 64 1013.5
20260901181701 92 151 0.0 8.0 0.00 0.02 0.00 65 1013.5
20260901181554 92 273 2.0 8.0 0.00 0.02 0.00 67 1013.5
20260901181449 93 136 2.0 8.0 0.00 0.02 0.00 66 1013.9
20260901181343 93 204 0.0 6.0 0.00 0.02 0.00 64 1013.5
20260901181255 92 267 0.0 6.0 0.00 0.02 0.00 64 1013.5
20260901181237 92 161 0.0 6.0 0.00 0.02 0.00 63 1013.5
20260901181132 92 213 0.0 10.0 0.00 0.02 0.00 66 1013.5
20260901181026 91 205 2.0 10.0 0.00 0.02 0.00 66 1013.5
20260901180920 91 206 0.0 10.0 0.00 0.02 0.00 65 1013.5
20260901180815 90 222 1.0 10.0 0.00 0.02 0.00 67 1013.5
20260901180749 90 150 2.0 10.0 0.00 0.02 0.00 66 1013.5
20260901180708 90 125 1.0 10.0 0.00 0.02 0.00 68 1013.5
20260901180603 89 165 5.0 10.0 0.00 0.02 0.00 67 1013.5
20260901180517 89 130 1.0 10.0 0.00 0.02 0.00 68 1013.5
20260901180509 89 282 3.0 10.0 0.00 0.02 0.00 68 1013.5
20260901180457 89 216 6.0 10.0 0.00 0.02 0.00 69 1013.9
20260901180154 89 290 4.0 7.0 0.00 0.02 0.00 69 1013.5
20260901180035 90 188 4.0 7.0 0.00 0.02 0.00 68 1013.5
20260901175929 90 178 2.0 6.0 0.00 0.02 0.00 67 1013.5
20260901175823 90 221 2.0 6.0 0.00 0.02 0.00 68 1013.9
20260901175735 90 264 2.0 6.0 0.00 0.02 0.00 68 1013.9
20260901175717 90 261 1.0 6.0 0.00 0.02 0.00 67 1013.9
20260901175612 90 203 2.0 6.0 0.00 0.02 0.00 67 1013.5
20260901175505 90 339 1.0 6.0 0.00 0.02 0.00 68 1013.5
20260901175400 90 155 2.0 6.0 0.00 0.02 0.00 68 1013.5
20260901175254 91 208 3.0 6.0 0.00 0.02 0.00 68 1013.5
20260901175228 91 208 3.0 6.0 0.00 0.02 0.00 68 1013.9
20260901175149 91 247 3.0 6.0 0.00 0.02 0.00 67 1013.9
20260901175043 90 190 2.0 6.0 0.00 0.02 0.00 68 1013.9
20260901174937 90 298 2.0 7.0 0.00 0.02 0.00 67 1013.9
20260901174844 90 180 4.0 7.0 0.00 0.02 0.00 67 1013.9
20260901174726 90 200 3.0 8.0 0.00 0.02 0.00 68 1013.5
20260901174620 90 172 4.0 8.0 0.00 0.02 0.00 67 1013.9
20260901174514 90 198 4.0 8.0 0.00 0.02 0.00 69 1013.5
20260901174409 90 226 1.0 8.0 0.00 0.02 0.00 69 1013.5
20260901174317 89 251 2.0 8.0 0.00 0.02 0.00 69 1013.9
20260901174214 89 291 1.0 8.0 0.00 0.02 0.00 68 1013.9
20260901174158 89 204 2.0 8.0 0.00 0.02 0.00 68 1013.9
20260901174051 89 248 4.0 8.0 0.00 0.02 0.00 70 1013.5
20260901173948 89 212 2.0 8.0 0.00 0.02 0.00 69 1013.5
20260901173940 89 191 2.0 7.0 0.00 0.02 0.00 69 1013.9
20260901173936 89 157 3.0 8.0 0.00 0.02 0.00 69 1013.5
20260901173927 89 172 0.0 7.0 0.00 0.02 0.00 69 1013.9
20260901173628 89 132 2.0 7.0 0.00 0.02 0.00 69 1013.5
20260901173523 89 195 0.0 7.0 0.00 0.02 0.00 69 1013.5
20260901173418 89 215 5.0 7.0 0.00 0.02 0.00 69 1013.5
20260901173311 89 200 2.0 7.0 0.00 0.02 0.00 69 1013.9
20260901173206 89 235 1.0 7.0 0.00 0.02 0.00 69 1013.9
20260901173101 89 248 2.0 7.0 0.00 0.02 0.00 69 1013.9
20260901173007 89 232 1.0 7.0 0.00 0.02 0.00 69 1013.9
20260901172849 89 221 2.0 7.0 0.00 0.02 0.00 70 1013.9
20260901172744 89 205 2.0 8.0 0.00 0.02 0.00 70 1013.9
20260901172655 88 188 3.0 8.0 0.00 0.02 0.00 70 1013.9
20260901172638 88 192 2.0 11.0 0.00 0.02 0.00 70 1013.5
20260901172531 88 191 2.0 11.0 0.00 0.02 0.00 70 1013.9
20260901172426 88 171 1.0 11.0 0.00 0.02 0.00 70 1013.9
20260901172320 88 146 2.0 11.0 0.00 0.02 0.00 70 1013.9
20260901172215 88 189 0.0 11.0 0.00 0.02 0.00 70 1013.9
20260901172149 88 189 0.0 11.0 0.00 0.02 0.00 70 1013.9
20260901172109 88 164 4.0 11.0 0.00 0.02 0.00 70 1013.5
20260901172003 88 287 3.0 11.0 0.00 0.02 0.00 70 1014.2
20260901171857 88 223 4.0 11.0 0.00 0.02 0.00 71 1013.9
20260901171752 88 215 4.0 11.0 0.00 0.02 0.00 70 1013.5
20260901171646 88 219 6.0 11.0 0.00 0.02 0.00 69 1013.9
20260901171540 89 166 4.0 10.0 0.00 0.02 0.00 70 1013.9
20260901171435 89 168 7.0 10.0 0.00 0.02 0.00 69 1013.9
20260901171409 90 205 1.0 10.0 0.00 0.02 0.00 68 1013.9
20260901171405 89 192 2.0 10.0 0.00 0.02 0.00 70 1013.9
20260901171357 89 195 4.0 10.0 0.00 0.02 0.00 69 1013.9
20260901171118 90 221 2.0 10.0 0.00 0.02 0.00 68 1013.5
20260901171011 90 201 5.0 6.0 0.00 0.02 0.00 68 1013.9
20260901170912 90 262 2.0 7.0 0.00 0.02 0.00 68 1013.9
20260901170907 90 239 1.0 4.0 0.00 0.02 0.00 68 1013.9
20260901170858 90 175 1.0 6.0 0.00 0.02 0.00 68 1013.9
20260901170849 89 178 1.0 7.0 0.00 0.02 0.00 69 1013.9
20260901170549 90 165 1.0 7.0 0.00 0.02 0.00 68 1013.9
20260901170443 90 249 2.0 7.0 0.00 0.02 0.00 69 1013.9
20260901170338 89 229 0.0 7.0 0.00 0.02 0.00 69 1014.2
20260901170231 89 252 2.0 7.0 0.00 0.02 0.00 68 1013.9
20260901170127 89 0 1.0 7.0 0.00 0.02 0.00 68 1014.2
20260901170020 88 215 0.0 7.0 0.00 0.02 0.00 69 1014.2
20260901165914 88 227 1.0 8.0 0.00 0.02 0.00 69 1014.2
20260901165843 89 122 1.0 8.0 0.00 0.02 0.00 69 1014.2
20260901165839 89 169 2.0 8.0 0.00 0.02 0.00 69 1014.2
20260901165830 89 207 5.0 8.0 0.00 0.02 0.00 69 1013.9
20260901165555 89 200 2.0 8.0 0.00 0.02 0.00 69 1014.2
20260901165450 89 311 1.0 8.0 0.00 0.02 0.00 69 1014.2
20260901165345 89 330 1.0 8.0 0.00 0.02 0.00 68 1013.9
20260901165239 88 199 1.0 8.0 0.00 0.02 0.00 70 1014.2
20260901165133 88 250 1.0 8.0 0.00 0.02 0.00 71 1014.2
20260901165106 88 220 2.0 9.0 0.00 0.02 0.00 71 1014.2
20260901165027 88 177 5.0 9.0 0.00 0.02 0.00 70 1014.2
20260901164921 88 205 3.0 9.0 0.00 0.02 0.00 71 1014.2
20260901164815 88 155 5.0 11.0 0.00 0.02 0.00 71 1014.2
20260901164707 87 181 4.0 11.0 0.00 0.02 0.00 71 1014.2
20260901164607 87 177 5.0 11.0 0.00 0.02 0.00 71 1014.2
20260901164601 87 186 4.0 11.0 0.00 0.02 0.00 72 1014.2
20260901164454 87 271 2.0 11.0 0.00 0.03 0.00 72 1014.2
20260901164349 87 277 2.0 11.0 0.00 0.03 0.00 72 1014.2
20260901164243 87 254 3.0 11.0 0.00 0.03 0.00 71 1014.2
20260901164138 87 172 9.0 11.0 0.00 0.03 0.00 71 1014.2
20260901164100 87 167 3.0 11.0 0.00 0.03 0.00 71 1014.2
20260901164032 87 259 3.0 11.0 0.00 0.03 0.00 72 1014.2
20260901163927 87 175 5.0 11.0 0.00 0.03 0.00 71 1014.2
20260901163833 87 244 2.0 8.0 0.00 0.04 0.00 71 1014.2
20260901163829 88 202 4.0 8.0 0.00 0.04 0.00 71 1014.2
20260901163820 88 206 6.0 8.0 0.00 0.04 0.00 70 1014.2
20260901163812 87 244 2.0 8.0 0.00 0.04 0.00 71 1014.2
20260901163504 87 237 2.0 8.0 0.00 0.04 0.00 71 1014.2
20260901163400 87 202 4.0 8.0 0.00 0.04 0.00 72 1014.2
20260901163322 88 156 3.0 8.0 0.00 0.04 0.00 71 1014.6
20260901163318 87 205 4.0 8.0 0.00 0.04 0.00 70 1014.2
20260901163309 87 313 1.0 8.0 0.00 0.04 0.00 71 1014.6
20260901163043 88 218 4.0 8.0 0.00 0.04 0.00 71 1014.6
20260901162938 89 152 4.0 7.0 0.00 0.04 0.00 71 1014.6
20260901162831 89 218 3.0 7.0 0.00 0.04 0.00 70 1014.2
20260901162726 89 236 1.0 7.0 0.00 0.04 0.00 70 1014.6
20260901162621 88 338 1.0 7.0 0.00 0.04 0.00 71 1014.2
20260901162543 88 207 0.0 7.0 0.00 0.04 0.00 71 1014.2
20260901162515 88 182 1.0 7.0 0.00 0.04 0.00 71 1014.6
20260901162409 88 261 1.0 7.0 0.00 0.04 0.00 71 1014.6
20260901162306 88 146 1.0 7.0 0.00 0.06 0.00 71 1014.6
20260901162158 89 235 2.0 7.0 0.00 0.06 0.00 70 1014.6